Darstellungsparameter: Aktuell verwendete Einstellungen:
Skalierung der Graphiken ... ?
xyx+y,   Skalierungsfaktor:      Skalierung: Modus: x, Faktor: 1
Darstellungszeitraum ... ?
Vom - - bis: - -   Zeitraum: 01.09.2019 - 05.09.2019
Min/Max/Avg-Anzeige ... ?
Zeige MMA aktuell
Zeige MMA Monat
Zeige MMA alles
Zeige --A aktuell
Zeige --A Monat
Zeige --A alles
Keine MMA-Anzeige
MMA:
Keine MMA-Graphiken
MMA-Basis: 01.09.2019 - 05.09.2019
Quicknavigation für Darstellung... ?
Tage:      1T, 2T, 3T, 5T -1T -2T -3T -5T +1T +2T +3T +5T
Wochen: 1W, 2W, 3W -1W -2W -3W +1W +2W +3W
Monate: 1M, 3M, 6M -1M -3M -6M +1M +3M +6M
Jahre:    1J, 3J, 5J, 10J -1J -3J -5J -10J +1J +3J +5J +10J
Nutze für die Darstellung ... ?
Originaldaten oder Mittelwerte auf ...
Stundenbasis Tagesbasis Wochenbasis
Monatsbasis Jahresbasis      Datenbasis: Original-Daten
Darstellen als:
Statistik (Auto) Statistik J:M      Darstellung:
Zur Graphik,    zurück zur Übersicht aller Sensoren.
 
Tabellarische Datenbersicht: ?
 
Sensor: Nr:Datum:Temp:Feuchte:Taupunkt:
Aussen-T/F 1 01-09-2019 00:00:00 19.9 C 91 % 18.39 C
2 01-09-2019 00:05:00 19.9 C 91 % 18.39 C
3 01-09-2019 00:10:00 19.9 C 91 % 18.39 C
4 01-09-2019 00:15:00 19.8 C 91 % 18.29 C
5 01-09-2019 00:20:00 19.8 C 91 % 18.29 C
6 01-09-2019 00:25:00 19.7 C 91 % 18.19 C
7 01-09-2019 00:30:00 19.7 C 91 % 18.19 C
8 01-09-2019 00:35:00 19.6 C 91 % 18.09 C
9 01-09-2019 00:40:00 19.5 C 91 % 17.99 C
10 01-09-2019 00:45:00 19.4 C 92 % 18.07 C
11 01-09-2019 00:50:00 19.4 C 92 % 18.07 C
12 01-09-2019 00:55:00 19.4 C 92 % 18.07 C
13 01-09-2019 01:00:00 19.4 C 92 % 18.07 C
14 01-09-2019 01:05:00 19.4 C 92 % 18.07 C
15 01-09-2019 01:10:00 19.4 C 92 % 18.07 C
16 01-09-2019 01:15:00 19.4 C 92 % 18.07 C
17 01-09-2019 01:20:00 19.4 C 91 % 17.89 C
18 01-09-2019 01:25:00 19.3 C 91 % 17.79 C
19 01-09-2019 01:30:00 19.3 C 91 % 17.79 C
20 01-09-2019 01:35:00 19.3 C 91 % 17.79 C
21 01-09-2019 01:40:00 19.3 C 90 % 17.62 C
22 01-09-2019 01:45:00 19.3 C 90 % 17.62 C
23 01-09-2019 01:50:00 19.3 C 90 % 17.62 C
24 01-09-2019 01:55:00 19.3 C 89 % 17.44 C
25 01-09-2019 02:00:00 19.3 C 89 % 17.44 C
Sensor: Nr:Datum:Temp:Feuchte:Taupunkt:
Aussen-T/F 26 01-09-2019 02:05:00 19.3 C 88 % 17.26 C
27 01-09-2019 02:10:00 19.3 C 88 % 17.26 C
28 01-09-2019 02:15:00 19.2 C 87 % 16.98 C
29 01-09-2019 02:20:00 19.3 C 86 % 16.9 C
30 01-09-2019 02:25:00 19.2 C 85 % 16.62 C
31 01-09-2019 02:30:00 19.2 C 85 % 16.62 C
32 01-09-2019 02:35:00 19.1 C 85 % 16.52 C
33 01-09-2019 02:40:00 19 C 84 % 16.24 C
34 01-09-2019 02:45:00 18.9 C 84 % 16.14 C
35 01-09-2019 02:50:00 18.8 C 85 % 16.23 C
36 01-09-2019 02:55:00 18.7 C 85 % 16.13 C
37 01-09-2019 03:00:00 18.6 C 85 % 16.03 C
38 01-09-2019 03:05:00 18.4 C 86 % 16.02 C
39 01-09-2019 03:10:00 18.4 C 86 % 16.02 C
40 01-09-2019 03:15:00 18.3 C 86 % 15.92 C
41 01-09-2019 03:20:00 18.3 C 86 % 15.92 C
42 01-09-2019 03:25:00 18.3 C 86 % 15.92 C
43 01-09-2019 03:30:00 18.2 C 86 % 15.82 C
44 01-09-2019 03:35:00 18.2 C 84 % 15.45 C
45 01-09-2019 03:40:00 18.1 C 84 % 15.35 C
46 01-09-2019 03:45:00 18.3 C 81 % 14.98 C
47 01-09-2019 03:50:00 18.4 C 80 % 14.89 C
48 01-09-2019 03:55:00 18.4 C 79 % 14.69 C
49 01-09-2019 04:00:00 18.3 C 79 % 14.6 C
50 01-09-2019 04:05:00 18.1 C 80 % 14.6 C
Sensor: Nr:Datum:Temp:Feuchte:Taupunkt:
Aussen-T/F 51 01-09-2019 04:10:00 18 C 79 % 14.31 C
52 01-09-2019 04:15:00 18.2 C 80 % 14.69 C
53 01-09-2019 04:20:00 18.1 C 79 % 14.4 C
54 01-09-2019 04:25:00 18.1 C 80 % 14.6 C
55 01-09-2019 04:30:00 17.9 C 80 % 14.4 C
56 01-09-2019 04:35:00 17.8 C 80 % 14.31 C
57 01-09-2019 04:40:00 17.7 C 81 % 14.4 C
58 01-09-2019 04:45:00 17.6 C 81 % 14.3 C
59 01-09-2019 04:50:00 17.4 C 81 % 14.11 C
60 01-09-2019 04:55:00 17.4 C 82 % 14.3 C
61 01-09-2019 05:00:00 17.4 C 82 % 14.3 C
62 01-09-2019 05:05:00 17.4 C 81 % 14.11 C
63 01-09-2019 05:10:00 17.6 C 80 % 14.11 C
64 01-09-2019 05:15:00 17.7 C 80 % 14.21 C
65 01-09-2019 05:20:00 17.8 C 79 % 14.11 C
66 01-09-2019 05:25:00 17.9 C 79 % 14.21 C
67 01-09-2019 05:30:00 18.1 C 78 % 14.21 C
68 01-09-2019 05:35:00 18.1 C 78 % 14.21 C
69 01-09-2019 05:40:00 18.1 C 78 % 14.21 C
70 01-09-2019 05:45:00 18.1 C 78 % 14.21 C
71 01-09-2019 05:50:00 18 C 78 % 14.11 C
72 01-09-2019 05:55:00 17.9 C 78 % 14.01 C
73 01-09-2019 06:00:00 17.8 C 78 % 13.91 C
74 01-09-2019 06:05:00 17.8 C 78 % 13.91 C
75 01-09-2019 06:10:00 17.7 C 78 % 13.82 C
Sensor: Nr:Datum:Temp:Feuchte:Taupunkt:
Aussen-T/F 76 01-09-2019 06:15:00 17.7 C 78 % 13.82 C
77 01-09-2019 06:20:00 17.7 C 78 % 13.82 C
78 01-09-2019 06:25:00 17.6 C 79 % 13.92 C
79 01-09-2019 06:30:00 17.4 C 79 % 13.72 C
80 01-09-2019 06:35:00 17.2 C 80 % 13.72 C
81 01-09-2019 06:40:00 17 C 81 % 13.72 C
82 01-09-2019 06:45:00 16.8 C 81 % 13.52 C
83 01-09-2019 06:50:00 16.6 C 82 % 13.52 C
84 01-09-2019 06:55:00 16.4 C 83 % 13.51 C
85 01-09-2019 07:00:00 16.2 C 84 % 13.5 C
86 01-09-2019 07:05:00 16.1 C 84 % 13.4 C
87 01-09-2019 07:10:00 16 C 85 % 13.48 C
88 01-09-2019 07:15:00 15.9 C 85 % 13.38 C
89 01-09-2019 07:20:00 15.9 C 85 % 13.38 C
90 01-09-2019 07:25:00 15.9 C 86 % 13.56 C
91 01-09-2019 07:30:00 15.9 C 86 % 13.56 C
92 01-09-2019 07:35:00 15.9 C 87 % 13.74 C
93 01-09-2019 07:40:00 16.1 C 87 % 13.94 C
94 01-09-2019 07:45:00 16.2 C 87 % 14.03 C
95 01-09-2019 07:50:00 16.4 C 86 % 14.05 C
96 01-09-2019 07:55:00 16.7 C 86 % 14.35 C
97 01-09-2019 08:00:00 16.8 C 84 % 14.08 C
98 01-09-2019 08:05:00 17 C 84 % 14.28 C
99 01-09-2019 08:10:00 17.2 C 84 % 14.47 C
100 01-09-2019 08:15:00 17.4 C 84 % 14.67 C
Sensor: Nr:Datum:Temp:Feuchte:Taupunkt:
Aussen-T/F 101 01-09-2019 08:20:00 17.4 C 82 % 14.3 C
102 01-09-2019 08:25:00 17.6 C 82 % 14.49 C
103 01-09-2019 08:30:00 17.7 C 82 % 14.59 C
104 01-09-2019 08:35:00 17.7 C 82 % 14.59 C
105 01-09-2019 08:40:00 17.8 C 82 % 14.69 C
106 01-09-2019 08:45:00 17.7 C 81 % 14.4 C
107 01-09-2019 08:50:00 17.7 C 82 % 14.59 C
108 01-09-2019 08:55:00 17.8 C 82 % 14.69 C
109 01-09-2019 09:00:00 17.8 C 82 % 14.69 C
110 01-09-2019 09:05:00 17.8 C 82 % 14.69 C
111 01-09-2019 09:10:00 17.8 C 81 % 14.5 C
112 01-09-2019 09:15:00 17.9 C 81 % 14.59 C
113 01-09-2019 09:20:00 18 C 81 % 14.69 C
114 01-09-2019 09:25:00 18.1 C 80 % 14.6 C
115 01-09-2019 09:30:00 18.1 C 81 % 14.79 C
116 01-09-2019 09:35:00 18.2 C 81 % 14.89 C
117 01-09-2019 09:40:00 18.2 C 79 % 14.5 C
118 01-09-2019 09:45:00 18.4 C 80 % 14.89 C
119 01-09-2019 09:50:00 18.6 C 79 % 14.89 C
120 01-09-2019 09:55:00 18.7 C 79 % 14.99 C
121 01-09-2019 10:00:00 18.7 C 78 % 14.79 C
122 01-09-2019 10:05:00 18.8 C 78 % 14.88 C
123 01-09-2019 10:10:00 18.9 C 77 % 14.78 C
124 01-09-2019 10:15:00 18.9 C 77 % 14.78 C
125 01-09-2019 10:20:00 18.9 C 76 % 14.58 C
Sensor: Nr:Datum:Temp:Feuchte:Taupunkt:
Aussen-T/F 126 01-09-2019 10:25:00 19 C 77 % 14.88 C
127 01-09-2019 10:30:00 19 C 76 % 14.68 C
128 01-09-2019 10:35:00 19.1 C 76 % 14.77 C
129 01-09-2019 10:40:00 19.2 C 76 % 14.87 C
130 01-09-2019 10:45:00 19.4 C 76 % 15.06 C
131 01-09-2019 10:50:00 19.6 C 75 % 15.05 C
132 01-09-2019 10:55:00 19.8 C 76 % 15.45 C
133 01-09-2019 11:00:00 19.9 C 75 % 15.34 C
134 01-09-2019 11:05:00 19.9 C 74 % 15.13 C
135 01-09-2019 11:10:00 19.9 C 75 % 15.34 C
136 01-09-2019 11:15:00 19.9 C 75 % 15.34 C
137 01-09-2019 11:20:00 20 C 74 % 15.23 C
138 01-09-2019 11:25:00 20.1 C 73 % 15.11 C
139 01-09-2019 11:30:00 20.2 C 74 % 15.42 C
140 01-09-2019 11:35:00 20.2 C 74 % 15.42 C
141 01-09-2019 11:40:00 20.1 C 73 % 15.11 C
142 01-09-2019 11:45:00 20.1 C 74 % 15.32 C
143 01-09-2019 11:50:00 20 C 74 % 15.23 C
144 01-09-2019 11:55:00 20 C 76 % 15.64 C
145 01-09-2019 12:00:00 20 C 75 % 15.43 C
146 01-09-2019 12:05:00 19.9 C 75 % 15.34 C
147 01-09-2019 12:10:00 19.8 C 75 % 15.24 C
148 01-09-2019 12:15:00 19.7 C 76 % 15.35 C
149 01-09-2019 12:20:00 19.6 C 76 % 15.26 C
150 01-09-2019 12:25:00 19.6 C 76 % 15.26 C
Sensor: Nr:Datum:Temp:Feuchte:Taupunkt:
Aussen-T/F 151 01-09-2019 12:30:00 19.8 C 76 % 15.45 C
152 01-09-2019 12:35:00 19.9 C 75 % 15.34 C
153 01-09-2019 12:40:00 20.1 C 75 % 15.53 C
154 01-09-2019 12:45:00 20.4 C 74 % 15.61 C
155 01-09-2019 12:50:00 20.8 C 72 % 15.57 C
156 01-09-2019 12:55:00 21 C 73 % 15.98 C
157 01-09-2019 13:00:00 20.9 C 72 % 15.66 C
158 01-09-2019 13:05:00 20.7 C 73 % 15.69 C
159 01-09-2019 13:10:00 20.3 C 77 % 16.14 C
160 01-09-2019 13:15:00 19.8 C 79 % 16.05 C
161 01-09-2019 13:20:00 19.6 C 80 % 16.06 C
162 01-09-2019 13:25:00 19.3 C 80 % 15.76 C
163 01-09-2019 13:30:00 19.3 C 79 % 15.57 C
164 01-09-2019 13:35:00 19.2 C 80 % 15.67 C
165 01-09-2019 13:40:00 19.3 C 80 % 15.76 C
166 01-09-2019 13:45:00 19.3 C 79 % 15.57 C
167 01-09-2019 13:50:00 19.3 C 78 % 15.37 C
168 01-09-2019 13:55:00 19.3 C 78 % 15.37 C
169 01-09-2019 14:00:00 19.3 C 77 % 15.17 C
170 01-09-2019 14:05:00 19.4 C 77 % 15.27 C
171 01-09-2019 14:10:00 19.5 C 77 % 15.36 C
172 01-09-2019 14:15:00 19.8 C 77 % 15.65 C
173 01-09-2019 14:20:00 19.9 C 76 % 15.54 C
174 01-09-2019 14:25:00 20.1 C 77 % 15.94 C
175 01-09-2019 14:30:00 20.3 C 77 % 16.14 C
Sensor: Nr:Datum:Temp:Feuchte:Taupunkt:
Aussen-T/F 176 01-09-2019 14:35:00 20.4 C 75 % 15.82 C
177 01-09-2019 14:40:00 20.5 C 74 % 15.71 C
178 01-09-2019 14:45:00 20.5 C 74 % 15.71 C
179 01-09-2019 14:50:00 20.6 C 74 % 15.8 C
180 01-09-2019 14:55:00 20.6 C 73 % 15.59 C
181 01-09-2019 15:00:00 20.6 C 72 % 15.38 C
182 01-09-2019 15:05:00 20.6 C 72 % 15.38 C
183 01-09-2019 15:10:00 20.6 C 72 % 15.38 C
184 01-09-2019 15:15:00 20.7 C 71 % 15.25 C
185 01-09-2019 15:20:00 20.7 C 72 % 15.47 C
186 01-09-2019 15:25:00 20.7 C 72 % 15.47 C
187 01-09-2019 15:30:00 20.6 C 72 % 15.38 C
188 01-09-2019 15:35:00 20.6 C 72 % 15.38 C
189 01-09-2019 15:40:00 20.6 C 71 % 15.16 C
190 01-09-2019 15:45:00 20.5 C 72 % 15.28 C
191 01-09-2019 15:50:00 20.6 C 71 % 15.16 C
192 01-09-2019 15:55:00 20.6 C 71 % 15.16 C
193 01-09-2019 16:00:00 20.6 C 72 % 15.38 C
194 01-09-2019 16:05:00 20.6 C 70 % 14.94 C
195 01-09-2019 16:10:00 20.5 C 70 % 14.84 C
196 01-09-2019 16:15:00 20.4 C 69 % 14.52 C
197 01-09-2019 16:20:00 20.4 C 68 % 14.3 C
198 01-09-2019 16:25:00 20.4 C 67 % 14.07 C
199 01-09-2019 16:30:00 20.4 C 67 % 14.07 C
200 01-09-2019 16:35:00 20.3 C 67 % 13.97 C
Sensor: Nr:Datum:Temp:Feuchte:Taupunkt:
Aussen-T/F 201 01-09-2019 16:40:00 20.3 C 67 % 13.97 C
202 01-09-2019 16:45:00 20.3 C 67 % 13.97 C
203 01-09-2019 16:50:00 20.2 C 66 % 13.65 C
204 01-09-2019 16:55:00 20.2 C 66 % 13.65 C
205 01-09-2019 17:00:00 20.1 C 65 % 13.32 C
206 01-09-2019 17:05:00 20.1 C 66 % 13.55 C
207 01-09-2019 17:10:00 20 C 66 % 13.46 C
208 01-09-2019 17:15:00 20 C 66 % 13.46 C
209 01-09-2019 17:20:00 20 C 66 % 13.46 C
210 01-09-2019 17:25:00 19.9 C 66 % 13.36 C
211 01-09-2019 17:30:00 19.9 C 66 % 13.36 C
212 01-09-2019 17:35:00 20 C 66 % 13.46 C
213 01-09-2019 17:40:00 20 C 64 % 12.99 C
214 01-09-2019 17:45:00 19.9 C 64 % 12.89 C
215 01-09-2019 17:50:00 19.9 C 65 % 13.13 C
216 01-09-2019 17:55:00 19.9 C 65 % 13.13 C
217 01-09-2019 18:00:00 20 C 64 % 12.99 C
218 01-09-2019 18:05:00 20.1 C 64 % 13.08 C
219 01-09-2019 18:10:00 20.1 C 65 % 13.32 C
220 01-09-2019 18:15:00 20.2 C 64 % 13.18 C
221 01-09-2019 18:20:00 20.4 C 63 % 13.12 C
222 01-09-2019 18:25:00 20.7 C 61 % 12.91 C
223 01-09-2019 18:30:00 20.8 C 61 % 13.01 C
224 01-09-2019 18:35:00 21 C 60 % 12.94 C
225 01-09-2019 18:40:00 21.3 C 59 % 12.97 C
Sensor: Nr:Datum:Temp:Feuchte:Taupunkt:
Aussen-T/F 226 01-09-2019 18:45:00 21.4 C 55 % 11.99 C
227 01-09-2019 18:50:00 21.5 C 55 % 12.08 C
228 01-09-2019 18:55:00 21.6 C 56 % 12.45 C
229 01-09-2019 19:00:00 21.6 C 55 % 12.18 C
230 01-09-2019 19:05:00 21.4 C 55 % 11.99 C
231 01-09-2019 19:10:00 21.3 C 55 % 11.9 C
232 01-09-2019 19:15:00 21.1 C 56 % 11.99 C
233 01-09-2019 19:20:00 20.9 C 56 % 11.8 C
234 01-09-2019 19:25:00 20.7 C 58 % 12.15 C
235 01-09-2019 19:30:00 20.4 C 58 % 11.86 C
236 01-09-2019 19:35:00 20.3 C 58 % 11.77 C
237 01-09-2019 19:40:00 20.1 C 59 % 11.84 C
238 01-09-2019 19:45:00 20 C 61 % 12.26 C
239 01-09-2019 19:50:00 19.8 C 63 % 12.56 C
240 01-09-2019 19:55:00 19.7 C 61 % 11.97 C
241 01-09-2019 20:00:00 19.6 C 61 % 11.88 C
242 01-09-2019 20:05:00 19.4 C 62 % 11.94 C
243 01-09-2019 20:10:00 19.4 C 63 % 12.18 C
244 01-09-2019 20:15:00 19.3 C 64 % 12.32 C
245 01-09-2019 20:20:00 19.1 C 66 % 12.6 C
246 01-09-2019 20:25:00 18.7 C 66 % 12.22 C
247 01-09-2019 20:30:00 18.3 C 67 % 12.07 C
248 01-09-2019 20:35:00 17.9 C 68 % 11.91 C
249 01-09-2019 20:40:00 17.6 C 69 % 11.85 C
250 01-09-2019 20:45:00 17.3 C 69 % 11.56 C
Sensor: Nr:Datum:Temp:Feuchte:Taupunkt:
Aussen-T/F 251 01-09-2019 20:50:00 17.1 C 71 % 11.8 C
252 01-09-2019 20:55:00 16.9 C 72 % 11.82 C
253 01-09-2019 21:00:00 16.7 C 73 % 11.84 C
254 01-09-2019 21:05:00 16.7 C 72 % 11.63 C
255 01-09-2019 21:10:00 16.7 C 73 % 11.84 C
256 01-09-2019 21:15:00 16.7 C 73 % 11.84 C
257 01-09-2019 21:20:00 16.7 C 72 % 11.63 C
258 01-09-2019 21:25:00 16.7 C 72 % 11.63 C
259 01-09-2019 21:30:00 16.7 C 72 % 11.63 C
260 01-09-2019 21:35:00 16.7 C 72 % 11.63 C
261 01-09-2019 21:40:00 16.7 C 72 % 11.63 C
262 01-09-2019 21:45:00 16.7 C 73 % 11.84 C
263 01-09-2019 21:50:00 16.6 C 72 % 11.54 C
264 01-09-2019 21:55:00 16.6 C 72 % 11.54 C
265 01-09-2019 22:00:00 16.6 C 71 % 11.32 C
266 01-09-2019 22:05:00 16.6 C 71 % 11.32 C
267 01-09-2019 22:10:00 16.5 C 71 % 11.23 C
268 01-09-2019 22:15:00 16.5 C 71 % 11.23 C
269 01-09-2019 22:20:00 16.4 C 71 % 11.13 C
270 01-09-2019 22:25:00 16.4 C 71 % 11.13 C
271 01-09-2019 22:30:00 16.4 C 71 % 11.13 C
272 01-09-2019 22:35:00 16.3 C 71 % 11.04 C
273 01-09-2019 22:40:00 16.3 C 71 % 11.04 C
274 01-09-2019 22:45:00 16.3 C 72 % 11.25 C
275 01-09-2019 22:50:00 16.2 C 73 % 11.36 C
Sensor: Nr:Datum:Temp:Feuchte:Taupunkt:
Aussen-T/F 276 01-09-2019 22:55:00 16.2 C 73 % 11.36 C
277 01-09-2019 23:00:00 16.1 C 73 % 11.26 C
278 01-09-2019 23:05:00 15.9 C 74 % 11.28 C
279 01-09-2019 23:10:00 15.8 C 74 % 11.18 C
280 01-09-2019 23:15:00 15.8 C 75 % 11.38 C
281 01-09-2019 23:20:00 15.7 C 75 % 11.28 C
282 01-09-2019 23:25:00 15.6 C 75 % 11.19 C
283 01-09-2019 23:30:00 15.5 C 75 % 11.09 C
284 01-09-2019 23:35:00 15.4 C 75 % 11 C
285 01-09-2019 23:40:00 15.4 C 76 % 11.19 C
286 01-09-2019 23:45:00 15.4 C 76 % 11.19 C
287 01-09-2019 23:50:00 15.3 C 76 % 11.1 C
288 01-09-2019 23:55:00 15.2 C 76 % 11 C
289 02-09-2019 00:00:00 15.1 C 75 % 10.71 C
290 02-09-2019 00:05:00 14.9 C 75 % 10.51 C
291 02-09-2019 00:10:00 14.8 C 75 % 10.42 C
292 02-09-2019 00:15:00 14.7 C 75 % 10.32 C
293 02-09-2019 00:20:00 14.6 C 75 % 10.22 C
294 02-09-2019 00:25:00 14.5 C 75 % 10.13 C
295 02-09-2019 00:30:00 14.4 C 75 % 10.03 C
296 02-09-2019 00:35:00 14.3 C 75 % 9.93 C
297 02-09-2019 00:40:00 14.2 C 76 % 10.03 C
298 02-09-2019 00:45:00 14.1 C 76 % 9.94 C
299 02-09-2019 00:50:00 13.9 C 77 % 9.94 C
300 02-09-2019 00:55:00 13.8 C 77 % 9.84 C
Sensor: Nr:Datum:Temp:Feuchte:Taupunkt:
Aussen-T/F 301 02-09-2019 01:00:00 13.7 C 77 % 9.75 C
302 02-09-2019 01:05:00 13.7 C 78 % 9.94 C
303 02-09-2019 01:10:00 13.6 C 78 % 9.84 C
304 02-09-2019 01:15:00 13.4 C 78 % 9.65 C
305 02-09-2019 01:20:00 13.3 C 78 % 9.55 C
306 02-09-2019 01:25:00 13.2 C 78 % 9.45 C
307 02-09-2019 01:30:00 13.1 C 78 % 9.36 C
308 02-09-2019 01:35:00 13.1 C 78 % 9.36 C
309 02-09-2019 01:40:00 13.1 C 77 % 9.16 C
310 02-09-2019 01:45:00 13.1 C 78 % 9.36 C
311 02-09-2019 01:50:00 13.1 C 78 % 9.36 C
312 02-09-2019 01:55:00 13.1 C 78 % 9.36 C
313 02-09-2019 02:00:00 13.1 C 78 % 9.36 C
314 02-09-2019 02:05:00 13.1 C 79 % 9.54 C
315 02-09-2019 02:10:00 13.2 C 80 % 9.83 C
316 02-09-2019 02:15:00 13.2 C 80 % 9.83 C
317 02-09-2019 02:20:00 13.3 C 81 % 10.11 C
318 02-09-2019 02:25:00 13.3 C 80 % 9.93 C
319 02-09-2019 02:30:00 13.4 C 80 % 10.02 C
320 02-09-2019 02:35:00 13.4 C 81 % 10.21 C
321 02-09-2019 02:40:00 13.4 C 81 % 10.21 C
322 02-09-2019 02:45:00 13.4 C 81 % 10.21 C
323 02-09-2019 02:50:00 13.4 C 81 % 10.21 C
324 02-09-2019 02:55:00 13.4 C 81 % 10.21 C
325 02-09-2019 03:00:00 13.4 C 82 % 10.39 C
Sensor: Nr:Datum:Temp:Feuchte:Taupunkt:
Aussen-T/F 326 02-09-2019 03:05:00 13.4 C 82 % 10.39 C
327 02-09-2019 03:10:00 13.3 C 83 % 10.48 C
328 02-09-2019 03:15:00 13.3 C 83 % 10.48 C
329 02-09-2019 03:20:00 13.3 C 83 % 10.48 C
330 02-09-2019 03:25:00 13.2 C 83 % 10.38 C
331 02-09-2019 03:30:00 13.1 C 83 % 10.28 C
332 02-09-2019 03:35:00 12.9 C 82 % 9.9 C
333 02-09-2019 03:40:00 12.8 C 82 % 9.81 C
334 02-09-2019 03:45:00 12.7 C 82 % 9.71 C
335 02-09-2019 03:50:00 12.5 C 82 % 9.51 C
336 02-09-2019 03:55:00 12.4 C 83 % 9.6 C
337 02-09-2019 04:00:00 12.3 C 83 % 9.5 C
338 02-09-2019 04:05:00 12.3 C 83 % 9.5 C
339 02-09-2019 04:10:00 12.2 C 83 % 9.4 C
340 02-09-2019 04:15:00 12.2 C 83 % 9.4 C
341 02-09-2019 04:20:00 12.1 C 84 % 9.48 C
342 02-09-2019 04:25:00 12 C 83 % 9.21 C
343 02-09-2019 04:30:00 11.9 C 84 % 9.29 C
344 02-09-2019 04:35:00 11.8 C 85 % 9.36 C
345 02-09-2019 04:40:00 11.8 C 85 % 9.36 C
346 02-09-2019 04:45:00 11.8 C 85 % 9.36 C
347 02-09-2019 04:50:00 11.8 C 85 % 9.36 C
348 02-09-2019 04:55:00 11.8 C 84 % 9.19 C
349 02-09-2019 05:00:00 11.7 C 85 % 9.27 C
350 02-09-2019 05:05:00 11.7 C 85 % 9.27 C
Sensor: Nr:Datum:Temp:Feuchte:Taupunkt:
Aussen-T/F 351 02-09-2019 05:10:00 11.6 C 85 % 9.17 C
352 02-09-2019 05:15:00 11.5 C 85 % 9.07 C
353 02-09-2019 05:20:00 11.4 C 86 % 9.14 C
354 02-09-2019 05:25:00 11.3 C 86 % 9.05 C
355 02-09-2019 05:30:00 11.2 C 86 % 8.95 C
356 02-09-2019 05:35:00 11.1 C 86 % 8.85 C
357 02-09-2019 05:40:00 10.9 C 86 % 8.65 C
358 02-09-2019 05:45:00 10.8 C 87 % 8.73 C
359 02-09-2019 05:50:00 10.7 C 87 % 8.63 C
360 02-09-2019 05:55:00 10.7 C 87 % 8.63 C
361 02-09-2019 06:00:00 10.6 C 88 % 8.7 C
362 02-09-2019 06:05:00 10.6 C 88 % 8.7 C
363 02-09-2019 06:10:00 10.4 C 88 % 8.5 C
364 02-09-2019 06:15:00 10.3 C 88 % 8.4 C
365 02-09-2019 06:20:00 10.2 C 88 % 8.3 C
366 02-09-2019 06:25:00 10.1 C 89 % 8.37 C
367 02-09-2019 06:30:00 10.1 C 90 % 8.54 C
368 02-09-2019 06:35:00 10.1 C 90 % 8.54 C
369 02-09-2019 06:40:00 10 C 90 % 8.44 C
370 02-09-2019 06:45:00 9.9 C 90 % 8.34 C
371 02-09-2019 06:50:00 9.8 C 90 % 8.24 C
372 02-09-2019 06:55:00 9.7 C 90 % 8.14 C
373 02-09-2019 07:00:00 9.7 C 90 % 8.14 C
374 02-09-2019 07:05:00 9.7 C 91 % 8.3 C
375 02-09-2019 07:10:00 9.7 C 91 % 8.3 C
Sensor: Nr:Datum:Temp:Feuchte:Taupunkt:
Aussen-T/F 376 02-09-2019 07:15:00 9.7 C 92 % 8.46 C
377 02-09-2019 07:20:00 9.7 C 92 % 8.46 C
378 02-09-2019 07:25:00 9.7 C 92 % 8.46 C
379 02-09-2019 07:30:00 9.7 C 92 % 8.46 C
380 02-09-2019 07:35:00 9.7 C 92 % 8.46 C
381 02-09-2019 07:40:00 9.8 C 92 % 8.56 C
382 02-09-2019 07:45:00 9.8 C 92 % 8.56 C
383 02-09-2019 07:50:00 9.8 C 92 % 8.56 C
384 02-09-2019 07:55:00 9.8 C 92 % 8.56 C
385 02-09-2019 08:00:00 9.9 C 92 % 8.66 C
386 02-09-2019 08:05:00 9.9 C 93 % 8.82 C
387 02-09-2019 08:10:00 9.9 C 93 % 8.82 C
388 02-09-2019 08:15:00 9.9 C 93 % 8.82 C
389 02-09-2019 08:20:00 9.9 C 93 % 8.82 C
390 02-09-2019 08:25:00 9.9 C 93 % 8.82 C
391 02-09-2019 08:30:00 10 C 93 % 8.92 C
392 02-09-2019 08:35:00 10.1 C 93 % 9.02 C
393 02-09-2019 08:40:00 10.1 C 93 % 9.02 C
394 02-09-2019 08:45:00 10.2 C 93 % 9.12 C
395 02-09-2019 08:50:00 10.3 C 93 % 9.22 C
396 02-09-2019 08:55:00 10.3 C 93 % 9.22 C
397 02-09-2019 09:00:00 10.3 C 93 % 9.22 C
398 02-09-2019 09:05:00 10.4 C 93 % 9.32 C
399 02-09-2019 09:10:00 10.4 C 93 % 9.32 C
400 02-09-2019 09:15:00 10.6 C 93 % 9.52 C
Sensor: Nr:Datum:Temp:Feuchte:Taupunkt:
Aussen-T/F 401 02-09-2019 09:20:00 10.7 C 93 % 9.62 C
402 02-09-2019 09:25:00 10.8 C 93 % 9.71 C
403 02-09-2019 09:30:00 10.9 C 93 % 9.81 C
404 02-09-2019 09:35:00 10.9 C 92 % 9.65 C
405 02-09-2019 09:40:00 11.1 C 92 % 9.85 C
406 02-09-2019 09:45:00 11.2 C 92 % 9.95 C
407 02-09-2019 09:50:00 11.3 C 92 % 10.05 C
408 02-09-2019 09:55:00 11.4 C 92 % 10.15 C
409 02-09-2019 10:00:00 11.6 C 92 % 10.35 C
410 02-09-2019 10:05:00 11.8 C 92 % 10.54 C
411 02-09-2019 10:10:00 12 C 92 % 10.74 C
412 02-09-2019 10:15:00 12.3 C 91 % 10.87 C
413 02-09-2019 10:20:00 12.5 C 91 % 11.07 C
414 02-09-2019 10:25:00 12.7 C 90 % 11.1 C
415 02-09-2019 10:30:00 12.9 C 89 % 11.13 C
416 02-09-2019 10:35:00 13.2 C 88 % 11.26 C
417 02-09-2019 10:40:00 13.5 C 87 % 11.38 C
418 02-09-2019 10:45:00 13.7 C 85 % 11.23 C
419 02-09-2019 10:50:00 13.9 C 82 % 10.88 C
420 02-09-2019 10:55:00 14.2 C 78 % 10.42 C
421 02-09-2019 11:00:00 14.6 C 74 % 10.02 C
422 02-09-2019 11:05:00 15 C 73 % 10.2 C
423 02-09-2019 11:10:00 15.5 C 69 % 9.84 C
424 02-09-2019 11:15:00 15.9 C 68 % 10.01 C
425 02-09-2019 11:20:00 16.2 C 67 % 10.07 C
Sensor: Nr:Datum:Temp:Feuchte:Taupunkt:
Aussen-T/F 426 02-09-2019 11:25:00 16.4 C 66 % 10.04 C
427 02-09-2019 11:30:00 16.6 C 65 % 10 C
428 02-09-2019 11:35:00 16.7 C 64 % 9.86 C
429 02-09-2019 11:40:00 16.8 C 64 % 9.96 C
430 02-09-2019 11:45:00 16.9 C 63 % 9.82 C
431 02-09-2019 11:50:00 16.9 C 62 % 9.58 C
432 02-09-2019 11:55:00 16.9 C 62 % 9.58 C
433 02-09-2019 12:00:00 16.8 C 62 % 9.49 C
434 02-09-2019 12:05:00 17 C 63 % 9.91 C
435 02-09-2019 12:10:00 17.2 C 60 % 9.37 C
436 02-09-2019 12:15:00 17.3 C 60 % 9.47 C
437 02-09-2019 12:20:00 17.4 C 61 % 9.81 C
438 02-09-2019 12:25:00 17.6 C 56 % 8.73 C
439 02-09-2019 12:30:00 17.7 C 53 % 8.01 C
440 02-09-2019 12:35:00 17.7 C 54 % 8.28 C
441 02-09-2019 12:40:00 17.7 C 54 % 8.28 C
442 02-09-2019 12:45:00 17.9 C 52 % 7.91 C
443 02-09-2019 12:50:00 18 C 51 % 7.72 C
444 02-09-2019 12:55:00 18.1 C 52 % 8.1 C
445 02-09-2019 13:00:00 18.2 C 53 % 8.47 C
446 02-09-2019 13:05:00 18.3 C 53 % 8.56 C
447 02-09-2019 13:10:00 18.4 C 54 % 8.93 C
448 02-09-2019 13:15:00 18.5 C 52 % 8.47 C
449 02-09-2019 13:20:00 18.6 C 49 % 7.69 C
450 02-09-2019 13:25:00 18.7 C 49 % 7.78 C
Sensor: Nr:Datum:Temp:Feuchte:Taupunkt:
Aussen-T/F 451 02-09-2019 13:30:00 18.8 C 49 % 7.87 C
452 02-09-2019 13:35:00 18.8 C 50 % 8.17 C
453 02-09-2019 13:40:00 18.9 C 49 % 7.96 C
454 02-09-2019 13:45:00 19 C 48 % 7.75 C
455 02-09-2019 13:50:00 19.1 C 45 % 6.9 C
456 02-09-2019 13:55:00 19.2 C 45 % 6.99 C
457 02-09-2019 14:00:00 19.4 C 48 % 8.12 C
458 02-09-2019 14:05:00 19.5 C 49 % 8.51 C
459 02-09-2019 14:10:00 19.5 C 46 % 7.58 C
460 02-09-2019 14:15:00 19.6 C 48 % 8.3 C
461 02-09-2019 14:20:00 19.8 C 46 % 7.86 C
462 02-09-2019 14:25:00 19.9 C 44 % 7.3 C
463 02-09-2019 14:30:00 19.9 C 46 % 7.95 C
464 02-09-2019 14:35:00 20 C 45 % 7.72 C
465 02-09-2019 14:40:00 20 C 46 % 8.04 C
466 02-09-2019 14:45:00 20.1 C 46 % 8.13 C
467 02-09-2019 14:50:00 20.1 C 47 % 8.45 C
468 02-09-2019 14:55:00 20.2 C 44 % 7.57 C
469 02-09-2019 15:00:00 20.2 C 45 % 7.9 C
470 02-09-2019 15:05:00 20.3 C 45 % 7.99 C
471 02-09-2019 15:10:00 20.4 C 44 % 7.75 C
472 02-09-2019 15:15:00 20.4 C 45 % 8.08 C
473 02-09-2019 15:20:00 20.3 C 45 % 7.99 C
474 02-09-2019 15:25:00 20.1 C 46 % 8.13 C
475 02-09-2019 15:30:00 20 C 45 % 7.72 C
Sensor: Nr:Datum:Temp:Feuchte:Taupunkt:
Aussen-T/F 476 02-09-2019 15:35:00 19.9 C 46 % 7.95 C
477 02-09-2019 15:40:00 19.8 C 47 % 8.17 C
478 02-09-2019 15:45:00 19.9 C 46 % 7.95 C
479 02-09-2019 15:50:00 20.3 C 45 % 7.99 C
480 02-09-2019 15:55:00 20.5 C 44 % 7.84 C
481 02-09-2019 16:00:00 20.8 C 43 % 7.77 C
482 02-09-2019 16:05:00 21.1 C 43 % 8.04 C
483 02-09-2019 16:10:00 21.3 C 43 % 8.22 C
484 02-09-2019 16:15:00 21.4 C 42 % 7.97 C
485 02-09-2019 16:20:00 21.6 C 42 % 8.15 C
486 02-09-2019 16:25:00 21.7 C 43 % 8.58 C
487 02-09-2019 16:30:00 21.8 C 41 % 7.97 C
488 02-09-2019 16:35:00 22.1 C 40 % 7.88 C
489 02-09-2019 16:40:00 22.2 C 40 % 7.97 C
490 02-09-2019 16:45:00 22.4 C 42 % 8.87 C
491 02-09-2019 16:50:00 22.6 C 40 % 8.33 C
492 02-09-2019 16:55:00 22.7 C 40 % 8.42 C
493 02-09-2019 17:00:00 22.8 C 39 % 8.13 C
494 02-09-2019 17:05:00 22.8 C 39 % 8.13 C
495 02-09-2019 17:10:00 22.9 C 38 % 7.84 C
496 02-09-2019 17:15:00 22.9 C 39 % 8.22 C
497 02-09-2019 17:20:00 22.9 C 38 % 7.84 C
498 02-09-2019 17:25:00 23.1 C 38 % 8.02 C
499 02-09-2019 17:30:00 23.1 C 38 % 8.02 C
500 02-09-2019 17:35:00 23.1 C 37 % 7.63 C
Sensor: Nr:Datum:Temp:Feuchte:Taupunkt:
Aussen-T/F 501 02-09-2019 17:40:00 23.2 C 39 % 8.49 C
502 02-09-2019 17:45:00 23.3 C 38 % 8.19 C
503 02-09-2019 17:50:00 23.5 C 36 % 7.58 C
504 02-09-2019 17:55:00 23.5 C 36 % 7.58 C
505 02-09-2019 18:00:00 23.3 C 36 % 7.4 C
506 02-09-2019 18:05:00 23.1 C 37 % 7.63 C
507 02-09-2019 18:10:00 22.9 C 39 % 8.22 C
508 02-09-2019 18:15:00 23.1 C 36 % 7.23 C
509 02-09-2019 18:20:00 23.1 C 37 % 7.63 C
510 02-09-2019 18:25:00 23.2 C 38 % 8.11 C
511 02-09-2019 18:30:00 23.1 C 37 % 7.63 C
512 02-09-2019 18:35:00 23 C 37 % 7.54 C
513 02-09-2019 18:40:00 22.9 C 37 % 7.45 C
514 02-09-2019 18:45:00 22.8 C 37 % 7.36 C
515 02-09-2019 18:50:00 22.7 C 38 % 7.66 C
516 02-09-2019 18:55:00 22.7 C 39 % 8.04 C
517 02-09-2019 19:00:00 22.7 C 37 % 7.27 C
518 02-09-2019 19:05:00 22.7 C 38 % 7.66 C
519 02-09-2019 19:10:00 22.6 C 39 % 7.95 C
520 02-09-2019 19:15:00 22.3 C 40 % 8.06 C
521 02-09-2019 19:20:00 21.9 C 45 % 9.44 C
522 02-09-2019 19:25:00 21.2 C 47 % 9.45 C
523 02-09-2019 19:30:00 20.6 C 48 % 9.21 C
524 02-09-2019 19:35:00 19.8 C 49 % 8.79 C
525 02-09-2019 19:40:00 19.1 C 53 % 9.3 C
Sensor: Nr:Datum:Temp:Feuchte:Taupunkt:
Aussen-T/F 526 02-09-2019 19:45:00 18.4 C 54 % 8.93 C
527 02-09-2019 19:50:00 18 C 55 % 8.83 C
528 02-09-2019 19:55:00 17.6 C 56 % 8.73 C
529 02-09-2019 20:00:00 17.4 C 56 % 8.54 C
530 02-09-2019 20:05:00 17.3 C 56 % 8.45 C
531 02-09-2019 20:10:00 17.3 C 58 % 8.97 C
532 02-09-2019 20:15:00 17.2 C 55 % 8.09 C
533 02-09-2019 20:20:00 17.1 C 57 % 8.52 C
534 02-09-2019 20:25:00 17.1 C 56 % 8.26 C
535 02-09-2019 20:30:00 16.9 C 56 % 8.07 C
536 02-09-2019 20:35:00 16.7 C 56 % 7.89 C
537 02-09-2019 20:40:00 16.6 C 56 % 7.8 C
538 02-09-2019 20:45:00 16.5 C 57 % 7.96 C
539 02-09-2019 20:50:00 16.4 C 56 % 7.61 C
540 02-09-2019 20:55:00 16.3 C 57 % 7.77 C
541 02-09-2019 21:00:00 16.2 C 56 % 7.42 C
542 02-09-2019 21:05:00 16.1 C 56 % 7.33 C
543 02-09-2019 21:10:00 16 C 56 % 7.24 C
544 02-09-2019 21:15:00 15.9 C 58 % 7.66 C
545 02-09-2019 21:20:00 15.8 C 60 % 8.06 C
546 02-09-2019 21:25:00 15.5 C 61 % 8.02 C
547 02-09-2019 21:30:00 15.3 C 61 % 7.83 C
548 02-09-2019 21:35:00 15.1 C 62 % 7.88 C
549 02-09-2019 21:40:00 15 C 63 % 8.02 C
550 02-09-2019 21:45:00 14.8 C 65 % 8.29 C
Sensor: Nr:Datum:Temp:Feuchte:Taupunkt:
Aussen-T/F 551 02-09-2019 21:50:00 14.6 C 65 % 8.1 C
552 02-09-2019 21:55:00 14.4 C 65 % 7.91 C
553 02-09-2019 22:00:00 14.2 C 67 % 8.17 C
554 02-09-2019 22:05:00 13.9 C 68 % 8.1 C
555 02-09-2019 22:10:00 13.8 C 69 % 8.22 C
556 02-09-2019 22:15:00 13.6 C 69 % 8.03 C
557 02-09-2019 22:20:00 13.5 C 70 % 8.14 C
558 02-09-2019 22:25:00 13.4 C 71 % 8.26 C
559 02-09-2019 22:30:00 13.3 C 71 % 8.16 C
560 02-09-2019 22:35:00 13.2 C 70 % 7.86 C
561 02-09-2019 22:40:00 13.2 C 71 % 8.06 C
562 02-09-2019 22:45:00 13.2 C 72 % 8.27 C
563 02-09-2019 22:50:00 13.2 C 72 % 8.27 C
564 02-09-2019 22:55:00 13.2 C 72 % 8.27 C
565 02-09-2019 23:00:00 13.2 C 72 % 8.27 C
566 02-09-2019 23:05:00 13.2 C 72 % 8.27 C
567 02-09-2019 23:10:00 13.1 C 71 % 7.97 C
568 02-09-2019 23:15:00 13.1 C 72 % 8.17 C
569 02-09-2019 23:20:00 13.1 C 72 % 8.17 C
570 02-09-2019 23:25:00 13 C 73 % 8.28 C
571 02-09-2019 23:30:00 12.9 C 74 % 8.38 C
572 02-09-2019 23:35:00 12.9 C 73 % 8.18 C
573 02-09-2019 23:40:00 12.9 C 73 % 8.18 C
574 02-09-2019 23:45:00 12.8 C 73 % 8.09 C
575 02-09-2019 23:50:00 12.8 C 74 % 8.29 C
Sensor: Nr:Datum:Temp:Feuchte:Taupunkt:
Aussen-T/F 576 02-09-2019 23:55:00 12.8 C 74 % 8.29 C
577 03-09-2019 00:00:00 12.7 C 74 % 8.19 C
578 03-09-2019 00:05:00 12.7 C 74 % 8.19 C
579 03-09-2019 00:10:00 12.6 C 74 % 8.09 C
580 03-09-2019 00:15:00 12.5 C 74 % 8 C
581 03-09-2019 00:20:00 12.4 C 74 % 7.9 C
582 03-09-2019 00:25:00 12.4 C 75 % 8.1 C
583 03-09-2019 00:30:00 12.3 C 75 % 8 C
584 03-09-2019 00:35:00 12.3 C 75 % 8 C
585 03-09-2019 00:40:00 12.2 C 75 % 7.91 C
586 03-09-2019 00:45:00 12.2 C 76 % 8.1 C
587 03-09-2019 00:50:00 12.2 C 76 % 8.1 C
588 03-09-2019 00:55:00 12.2 C 76 % 8.1 C
589 03-09-2019 01:00:00 12.2 C 76 % 8.1 C
590 03-09-2019 01:05:00 12.2 C 76 % 8.1 C
591 03-09-2019 01:10:00 12.2 C 76 % 8.1 C
592 03-09-2019 01:15:00 12.2 C 77 % 8.29 C
593 03-09-2019 01:20:00 12.3 C 77 % 8.39 C
594 03-09-2019 01:25:00 12.3 C 77 % 8.39 C
595 03-09-2019 01:30:00 12.2 C 76 % 8.1 C
596 03-09-2019 01:35:00 12.2 C 77 % 8.29 C
597 03-09-2019 01:40:00 12.2 C 77 % 8.29 C
598 03-09-2019 01:45:00 12 C 76 % 7.91 C
599 03-09-2019 01:50:00 11.8 C 76 % 7.71 C
600 03-09-2019 01:55:00 11.7 C 77 % 7.81 C
Sensor: Nr:Datum:Temp:Feuchte:Taupunkt:
Aussen-T/F 601 03-09-2019 02:00:00 11.4 C 77 % 7.52 C
602 03-09-2019 02:05:00 11.3 C 78 % 7.61 C
603 03-09-2019 02:10:00 11.2 C 78 % 7.51 C
604 03-09-2019 02:15:00 11.1 C 78 % 7.41 C
605 03-09-2019 02:20:00 11 C 79 % 7.5 C
606 03-09-2019 02:25:00 10.9 C 79 % 7.41 C
607 03-09-2019 02:30:00 10.8 C 80 % 7.49 C
608 03-09-2019 02:35:00 10.7 C 80 % 7.4 C
609 03-09-2019 02:40:00 10.7 C 80 % 7.4 C
610 03-09-2019 02:45:00 10.6 C 80 % 7.3 C
611 03-09-2019 02:50:00 10.6 C 80 % 7.3 C
612 03-09-2019 02:55:00 10.4 C 80 % 7.1 C
613 03-09-2019 03:00:00 10.4 C 80 % 7.1 C
614 03-09-2019 03:05:00 10.4 C 81 % 7.28 C
615 03-09-2019 03:10:00 10.3 C 81 % 7.19 C
616 03-09-2019 03:15:00 10.2 C 81 % 7.09 C
617 03-09-2019 03:20:00 10.2 C 81 % 7.09 C
618 03-09-2019 03:25:00 10.2 C 82 % 7.27 C
619 03-09-2019 03:30:00 10.2 C 82 % 7.27 C
620 03-09-2019 03:35:00 10.1 C 82 % 7.17 C
621 03-09-2019 03:40:00 10.1 C 82 % 7.17 C
622 03-09-2019 03:45:00 10 C 82 % 7.07 C
623 03-09-2019 03:50:00 10 C 82 % 7.07 C
624 03-09-2019 03:55:00 10 C 83 % 7.25 C
625 03-09-2019 04:00:00 10.1 C 83 % 7.35 C
Sensor: Nr:Datum:Temp:Feuchte:Taupunkt:
Aussen-T/F 626 03-09-2019 04:05:00 10.1 C 84 % 7.52 C
627 03-09-2019 04:10:00 10.1 C 84 % 7.52 C
628 03-09-2019 04:15:00 10.1 C 84 % 7.52 C
629 03-09-2019 04:20:00 10.1 C 84 % 7.52 C
630 03-09-2019 04:25:00 10.1 C 84 % 7.52 C
631 03-09-2019 04:30:00 10.1 C 84 % 7.52 C
632 03-09-2019 04:35:00 10.1 C 84 % 7.52 C
633 03-09-2019 04:40:00 10.1 C 84 % 7.52 C
634 03-09-2019 04:45:00 10.1 C 84 % 7.52 C
635 03-09-2019 04:50:00 10.1 C 84 % 7.52 C
636 03-09-2019 04:55:00 9.9 C 83 % 7.15 C
637 03-09-2019 05:00:00 9.9 C 83 % 7.15 C
638 03-09-2019 05:05:00 9.7 C 83 % 6.96 C
639 03-09-2019 05:10:00 9.6 C 84 % 7.03 C
640 03-09-2019 05:15:00 9.5 C 84 % 6.94 C
641 03-09-2019 05:20:00 9.4 C 85 % 7.01 C
642 03-09-2019 05:25:00 9.4 C 85 % 7.01 C
643 03-09-2019 05:30:00 9.3 C 85 % 6.91 C
644 03-09-2019 05:35:00 9.2 C 85 % 6.81 C
645 03-09-2019 05:40:00 9.3 C 86 % 7.08 C
646 03-09-2019 05:45:00 9.3 C 87 % 7.25 C
647 03-09-2019 05:50:00 9.4 C 87 % 7.35 C
648 03-09-2019 05:55:00 9.4 C 87 % 7.35 C
649 03-09-2019 06:00:00 9.3 C 87 % 7.25 C
650 03-09-2019 06:05:00 9.3 C 87 % 7.25 C
Sensor: Nr:Datum:Temp:Feuchte:Taupunkt:
Aussen-T/F 651 03-09-2019 06:10:00 9.2 C 86 % 6.98 C
652 03-09-2019 06:15:00 9.1 C 86 % 6.89 C
653 03-09-2019 06:20:00 9 C 87 % 6.96 C
654 03-09-2019 06:25:00 8.9 C 87 % 6.86 C
655 03-09-2019 06:30:00 8.8 C 87 % 6.76 C
656 03-09-2019 06:35:00 8.8 C 87 % 6.76 C
657 03-09-2019 06:40:00 8.7 C 87 % 6.66 C
658 03-09-2019 06:45:00 8.7 C 88 % 6.83 C
659 03-09-2019 06:50:00 8.6 C 88 % 6.73 C
660 03-09-2019 06:55:00 8.6 C 88 % 6.73 C
661 03-09-2019 07:00:00 8.5 C 88 % 6.63 C
662 03-09-2019 07:05:00 8.6 C 89 % 6.89 C
663 03-09-2019 07:10:00 8.6 C 88 % 6.73 C
664 03-09-2019 07:15:00 8.6 C 89 % 6.89 C
665 03-09-2019 07:20:00 8.6 C 89 % 6.89 C
666 03-09-2019 07:25:00 8.7 C 89 % 6.99 C
667 03-09-2019 07:30:00 8.7 C 89 % 6.99 C
668 03-09-2019 07:35:00 8.7 C 89 % 6.99 C
669 03-09-2019 07:40:00 8.7 C 89 % 6.99 C
670 03-09-2019 07:45:00 8.7 C 89 % 6.99 C
671 03-09-2019 07:50:00 8.7 C 89 % 6.99 C
672 03-09-2019 07:55:00 8.8 C 89 % 7.09 C
673 03-09-2019 08:00:00 8.8 C 89 % 7.09 C
674 03-09-2019 08:05:00 8.8 C 89 % 7.09 C
675 03-09-2019 08:10:00 8.8 C 89 % 7.09 C
Sensor: Nr:Datum:Temp:Feuchte:Taupunkt:
Aussen-T/F 676 03-09-2019 08:15:00 8.9 C 90 % 7.35 C
677 03-09-2019 08:20:00 8.9 C 90 % 7.35 C
678 03-09-2019 08:25:00 9 C 90 % 7.45 C
679 03-09-2019 08:30:00 9.1 C 90 % 7.55 C
680 03-09-2019 08:35:00 9.2 C 90 % 7.65 C
681 03-09-2019 08:40:00 9.3 C 90 % 7.75 C
682 03-09-2019 08:45:00 9.3 C 90 % 7.75 C
683 03-09-2019 08:50:00 9.4 C 90 % 7.85 C
684 03-09-2019 08:55:00 9.5 C 90 % 7.94 C
685 03-09-2019 09:00:00 9.6 C 90 % 8.04 C
686 03-09-2019 09:05:00 9.7 C 90 % 8.14 C
687 03-09-2019 09:10:00 9.8 C 90 % 8.24 C
688 03-09-2019 09:15:00 9.9 C 90 % 8.34 C
689 03-09-2019 09:20:00 10.1 C 89 % 8.37 C
690 03-09-2019 09:25:00 10.2 C 89 % 8.47 C
691 03-09-2019 09:30:00 10.3 C 89 % 8.57 C
692 03-09-2019 09:35:00 10.6 C 89 % 8.86 C
693 03-09-2019 09:40:00 10.8 C 88 % 8.89 C
694 03-09-2019 09:45:00 11 C 88 % 9.09 C
695 03-09-2019 09:50:00 11.2 C 88 % 9.29 C
696 03-09-2019 09:55:00 11.3 C 87 % 9.22 C
697 03-09-2019 10:00:00 11.6 C 87 % 9.51 C
698 03-09-2019 10:05:00 11.7 C 86 % 9.44 C
699 03-09-2019 10:10:00 12 C 86 % 9.73 C
700 03-09-2019 10:15:00 12.3 C 85 % 9.85 C
Sensor: Nr:Datum:Temp:Feuchte:Taupunkt:
Aussen-T/F 701 03-09-2019 10:20:00 12.7 C 85 % 10.25 C
702 03-09-2019 10:25:00 13 C 84 % 10.36 C
703 03-09-2019 10:30:00 13.3 C 82 % 10.3 C
704 03-09-2019 10:35:00 13.6 C 80 % 10.22 C
705 03-09-2019 10:40:00 14.1 C 78 % 10.33 C
706 03-09-2019 10:45:00 14.5 C 77 % 10.52 C
707 03-09-2019 10:50:00 14.8 C 75 % 10.42 C
708 03-09-2019 10:55:00 15.1 C 74 % 10.5 C
709 03-09-2019 11:00:00 15.5 C 71 % 10.27 C
710 03-09-2019 11:05:00 15.8 C 70 % 10.34 C
711 03-09-2019 11:10:00 16.1 C 70 % 10.63 C
712 03-09-2019 11:15:00 16.3 C 67 % 10.17 C
713 03-09-2019 11:20:00 16.7 C 65 % 10.09 C
714 03-09-2019 11:25:00 17.2 C 63 % 10.1 C
715 03-09-2019 11:30:00 17.7 C 61 % 10.09 C
716 03-09-2019 11:35:00 18.1 C 61 % 10.47 C
717 03-09-2019 11:40:00 18.3 C 60 % 10.41 C
718 03-09-2019 11:45:00 18.5 C 58 % 10.09 C
719 03-09-2019 11:50:00 18.8 C 57 % 10.11 C
720 03-09-2019 11:55:00 19.1 C 56 % 10.12 C
721 03-09-2019 12:00:00 19.3 C 57 % 10.58 C
722 03-09-2019 12:05:00 19.5 C 54 % 9.95 C
723 03-09-2019 12:10:00 19.6 C 55 % 10.32 C
724 03-09-2019 12:15:00 19.7 C 56 % 10.68 C
725 03-09-2019 12:20:00 19.8 C 54 % 10.23 C
Sensor: Nr:Datum:Temp:Feuchte:Taupunkt:
Aussen-T/F 726 03-09-2019 12:25:00 19.9 C 53 % 10.04 C
727 03-09-2019 12:30:00 20 C 53 % 10.14 C
728 03-09-2019 12:35:00 20.1 C 52 % 9.94 C
729 03-09-2019 12:40:00 20.3 C 53 % 10.41 C
730 03-09-2019 12:45:00 20.3 C 52 % 10.13 C
731 03-09-2019 12:50:00 20.4 C 51 % 9.93 C
732 03-09-2019 12:55:00 20.6 C 52 % 10.41 C
733 03-09-2019 13:00:00 20.8 C 53 % 10.88 C
734 03-09-2019 13:05:00 20.8 C 50 % 10 C
735 03-09-2019 13:10:00 20.8 C 51 % 10.3 C
736 03-09-2019 13:15:00 21 C 50 % 10.19 C
737 03-09-2019 13:20:00 21.2 C 50 % 10.37 C
738 03-09-2019 13:25:00 21.1 C 50 % 10.28 C
739 03-09-2019 13:30:00 21.2 C 50 % 10.37 C
740 03-09-2019 13:35:00 21.4 C 48 % 9.94 C
741 03-09-2019 13:40:00 21.6 C 50 % 10.74 C
742 03-09-2019 13:45:00 21.6 C 49 % 10.44 C
743 03-09-2019 13:50:00 21.7 C 48 % 10.22 C
744 03-09-2019 13:55:00 21.8 C 47 % 9.99 C
745 03-09-2019 14:00:00 21.9 C 46 % 9.77 C
746 03-09-2019 14:05:00 22.1 C 46 % 9.95 C
747 03-09-2019 14:10:00 22.2 C 47 % 10.36 C
748 03-09-2019 14:15:00 22.3 C 45 % 9.8 C
749 03-09-2019 14:20:00 22.3 C 46 % 10.13 C
750 03-09-2019 14:25:00 22.6 C 46 % 10.4 C
Sensor: Nr:Datum:Temp:Feuchte:Taupunkt:
Aussen-T/F 751 03-09-2019 14:30:00 22.7 C 45 % 10.16 C
752 03-09-2019 14:35:00 22.7 C 45 % 10.16 C
753 03-09-2019 14:40:00 22.9 C 46 % 10.67 C
754 03-09-2019 14:45:00 23.2 C 45 % 10.62 C
755 03-09-2019 14:50:00 23.3 C 44 % 10.37 C
756 03-09-2019 14:55:00 23.5 C 45 % 10.89 C
757 03-09-2019 15:00:00 23.6 C 45 % 10.98 C
758 03-09-2019 15:05:00 23.5 C 45 % 10.89 C
759 03-09-2019 15:10:00 23.6 C 45 % 10.98 C
760 03-09-2019 15:15:00 23.7 C 45 % 11.07 C
761 03-09-2019 15:20:00 23.8 C 45 % 11.16 C
762 03-09-2019 15:25:00 24 C 45 % 11.34 C
763 03-09-2019 15:30:00 24.2 C 45 % 11.52 C
764 03-09-2019 15:35:00 24.2 C 45 % 11.52 C
765 03-09-2019 15:40:00 23.9 C 47 % 11.91 C
766 03-09-2019 15:45:00 23.7 C 47 % 11.73 C
767 03-09-2019 15:50:00 23.5 C 48 % 11.86 C
768 03-09-2019 15:55:00 23.3 C 48 % 11.68 C
769 03-09-2019 16:00:00 23.3 C 50 % 12.3 C
770 03-09-2019 16:05:00 23.3 C 49 % 11.99 C
771 03-09-2019 16:10:00 23.2 C 50 % 12.21 C
772 03-09-2019 16:15:00 23.2 C 49 % 11.9 C
773 03-09-2019 16:20:00 23.1 C 50 % 12.11 C
774 03-09-2019 16:25:00 23.1 C 51 % 12.42 C
775 03-09-2019 16:30:00 23.6 C 51 % 12.88 C
Sensor: Nr:Datum:Temp:Feuchte:Taupunkt:
Aussen-T/F 776 03-09-2019 16:35:00 24.1 C 49 % 12.72 C
777 03-09-2019 16:40:00 24.3 C 49 % 12.91 C
778 03-09-2019 16:45:00 24.2 C 49 % 12.81 C
779 03-09-2019 16:50:00 23.8 C 50 % 12.76 C
780 03-09-2019 16:55:00 23.8 C 51 % 13.06 C
781 03-09-2019 17:00:00 23.7 C 51 % 12.97 C
782 03-09-2019 17:05:00 23.3 C 51 % 12.6 C
783 03-09-2019 17:10:00 23.1 C 52 % 12.71 C
784 03-09-2019 17:15:00 23.3 C 52 % 12.9 C
785 03-09-2019 17:20:00 23.6 C 52 % 13.17 C
786 03-09-2019 17:25:00 23.7 C 51 % 12.97 C
787 03-09-2019 17:30:00 23.8 C 51 % 13.06 C
788 03-09-2019 17:35:00 23.8 C 50 % 12.76 C
789 03-09-2019 17:40:00 23.9 C 51 % 13.15 C
790 03-09-2019 17:45:00 23.9 C 50 % 12.85 C
791 03-09-2019 17:50:00 23.9 C 50 % 12.85 C
792 03-09-2019 17:55:00 23.8 C 50 % 12.76 C
793 03-09-2019 18:00:00 23.7 C 51 % 12.97 C
794 03-09-2019 18:05:00 23.6 C 51 % 12.88 C
795 03-09-2019 18:10:00 23.8 C 51 % 13.06 C
796 03-09-2019 18:15:00 23.8 C 51 % 13.06 C
797 03-09-2019 18:20:00 23.6 C 52 % 13.17 C
798 03-09-2019 18:25:00 23.4 C 52 % 12.99 C
799 03-09-2019 18:30:00 23.2 C 52 % 12.8 C
800 03-09-2019 18:35:00 23.1 C 53 % 13 C
Sensor: Nr:Datum:Temp:Feuchte:Taupunkt:
Aussen-T/F 801 03-09-2019 18:40:00 22.9 C 54 % 13.1 C
802 03-09-2019 18:45:00 22.8 C 54 % 13.01 C
803 03-09-2019 18:50:00 22.6 C 54 % 12.83 C
804 03-09-2019 18:55:00 22.2 C 56 % 13.01 C
805 03-09-2019 19:00:00 21.8 C 56 % 12.64 C
806 03-09-2019 19:05:00 21.6 C 57 % 12.72 C
807 03-09-2019 19:10:00 21.4 C 58 % 12.8 C
808 03-09-2019 19:15:00 21.4 C 58 % 12.8 C
809 03-09-2019 19:20:00 21.4 C 59 % 13.06 C
810 03-09-2019 19:25:00 21.4 C 59 % 13.06 C
811 03-09-2019 19:30:00 21.3 C 58 % 12.71 C
812 03-09-2019 19:35:00 21.1 C 59 % 12.78 C
813 03-09-2019 19:40:00 20.8 C 59 % 12.5 C
814 03-09-2019 19:45:00 20.6 C 60 % 12.57 C
815 03-09-2019 19:50:00 20.4 C 61 % 12.63 C
816 03-09-2019 19:55:00 20.2 C 61 % 12.44 C
817 03-09-2019 20:00:00 20.1 C 62 % 12.6 C
818 03-09-2019 20:05:00 19.9 C 62 % 12.41 C
819 03-09-2019 20:10:00 19.7 C 63 % 12.46 C
820 03-09-2019 20:15:00 19.6 C 64 % 12.61 C
821 03-09-2019 20:20:00 19.4 C 64 % 12.42 C
822 03-09-2019 20:25:00 19.2 C 65 % 12.47 C
823 03-09-2019 20:30:00 18.9 C 66 % 12.41 C
824 03-09-2019 20:35:00 18.6 C 67 % 12.36 C
825 03-09-2019 20:40:00 18.2 C 68 % 12.2 C
Sensor: Nr:Datum:Temp:Feuchte:Taupunkt:
Aussen-T/F 826 03-09-2019 20:45:00 17.9 C 69 % 12.14 C
827 03-09-2019 20:50:00 17.6 C 70 % 12.07 C
828 03-09-2019 20:55:00 17.3 C 71 % 12 C
829 03-09-2019 21:00:00 17.1 C 72 % 12.02 C
830 03-09-2019 21:05:00 16.9 C 73 % 12.03 C
831 03-09-2019 21:10:00 16.8 C 73 % 11.94 C
832 03-09-2019 21:15:00 16.6 C 74 % 11.95 C
833 03-09-2019 21:20:00 16.4 C 74 % 11.76 C
834 03-09-2019 21:25:00 16.3 C 75 % 11.86 C
835 03-09-2019 21:30:00 16.2 C 76 % 11.97 C
836 03-09-2019 21:35:00 16.1 C 76 % 11.87 C
837 03-09-2019 21:40:00 16 C 76 % 11.77 C
838 03-09-2019 21:45:00 15.9 C 77 % 11.88 C
839 03-09-2019 21:50:00 15.8 C 77 % 11.78 C
840 03-09-2019 21:55:00 15.8 C 77 % 11.78 C
841 03-09-2019 22:00:00 15.7 C 78 % 11.88 C
842 03-09-2019 22:05:00 15.7 C 78 % 11.88 C
843 03-09-2019 22:10:00 15.6 C 78 % 11.78 C
844 03-09-2019 22:15:00 15.6 C 78 % 11.78 C
845 03-09-2019 22:20:00 15.5 C 79 % 11.88 C
846 03-09-2019 22:25:00 15.4 C 79 % 11.78 C
847 03-09-2019 22:30:00 15.3 C 79 % 11.68 C
848 03-09-2019 22:35:00 15.2 C 80 % 11.78 C
849 03-09-2019 22:40:00 15.2 C 80 % 11.78 C
850 03-09-2019 22:45:00 15.1 C 80 % 11.68 C
Sensor: Nr:Datum:Temp:Feuchte:Taupunkt:
Aussen-T/F 851 03-09-2019 22:50:00 14.9 C 81 % 11.67 C
852 03-09-2019 22:55:00 14.8 C 81 % 11.57 C
853 03-09-2019 23:00:00 14.7 C 81 % 11.48 C
854 03-09-2019 23:05:00 14.6 C 82 % 11.56 C
855 03-09-2019 23:10:00 14.4 C 82 % 11.37 C
856 03-09-2019 23:15:00 14.3 C 82 % 11.27 C
857 03-09-2019 23:20:00 14.2 C 83 % 11.36 C
858 03-09-2019 23:25:00 14.1 C 83 % 11.26 C
859 03-09-2019 23:30:00 13.9 C 84 % 11.24 C
860 03-09-2019 23:35:00 13.9 C 84 % 11.24 C
861 03-09-2019 23:40:00 13.8 C 84 % 11.15 C
862 03-09-2019 23:45:00 13.7 C 85 % 11.23 C
863 03-09-2019 23:50:00 13.6 C 85 % 11.13 C
864 03-09-2019 23:55:00 13.4 C 85 % 10.93 C
865 04-09-2019 00:00:00 13.4 C 86 % 11.11 C
866 04-09-2019 00:05:00 13.3 C 86 % 11.01 C
867 04-09-2019 00:10:00 13.3 C 86 % 11.01 C
868 04-09-2019 00:15:00 13.2 C 86 % 10.91 C
869 04-09-2019 00:20:00 13.1 C 87 % 10.99 C
870 04-09-2019 00:25:00 13.1 C 87 % 10.99 C
871 04-09-2019 00:30:00 13 C 87 % 10.89 C
872 04-09-2019 00:35:00 12.9 C 87 % 10.79 C
873 04-09-2019 00:40:00 12.9 C 88 % 10.96 C
874 04-09-2019 00:45:00 12.9 C 88 % 10.96 C
875 04-09-2019 00:50:00 12.8 C 88 % 10.86 C
Sensor: Nr:Datum:Temp:Feuchte:Taupunkt:
Aussen-T/F 876 04-09-2019 00:55:00 12.7 C 88 % 10.77 C
877 04-09-2019 01:00:00 12.7 C 88 % 10.77 C
878 04-09-2019 01:05:00 12.6 C 88 % 10.67 C
879 04-09-2019 01:10:00 12.5 C 89 % 10.74 C
880 04-09-2019 01:15:00 12.4 C 89 % 10.64 C
881 04-09-2019 01:20:00 12.4 C 89 % 10.64 C
882 04-09-2019 01:25:00 12.3 C 90 % 10.71 C
883 04-09-2019 01:30:00 12.3 C 90 % 10.71 C
884 04-09-2019 01:35:00 12.3 C 90 % 10.71 C
885 04-09-2019 01:40:00 12.2 C 90 % 10.61 C
886 04-09-2019 01:45:00 12.2 C 90 % 10.61 C
887 04-09-2019 01:50:00 12.2 C 90 % 10.61 C
888 04-09-2019 01:55:00 12.1 C 90 % 10.51 C
889 04-09-2019 02:00:00 12.1 C 90 % 10.51 C
890 04-09-2019 02:05:00 12 C 90 % 10.41 C
891 04-09-2019 02:10:00 12 C 90 % 10.41 C
892 04-09-2019 02:15:00 11.9 C 90 % 10.31 C
893 04-09-2019 02:20:00 11.9 C 91 % 10.48 C
894 04-09-2019 02:25:00 11.9 C 91 % 10.48 C
895 04-09-2019 02:30:00 11.9 C 91 % 10.48 C
896 04-09-2019 02:35:00 11.8 C 91 % 10.38 C
897 04-09-2019 02:40:00 11.8 C 91 % 10.38 C
898 04-09-2019 02:45:00 11.7 C 91 % 10.28 C
899 04-09-2019 02:50:00 11.7 C 91 % 10.28 C
900 04-09-2019 02:55:00 11.6 C 91 % 10.18 C
Sensor: Nr:Datum:Temp:Feuchte:Taupunkt:
Aussen-T/F 901 04-09-2019 03:00:00 11.6 C 91 % 10.18 C
902 04-09-2019 03:05:00 11.5 C 92 % 10.25 C
903 04-09-2019 03:10:00 11.4 C 92 % 10.15 C
904 04-09-2019 03:15:00 11.4 C 92 % 10.15 C
905 04-09-2019 03:20:00 11.4 C 92 % 10.15 C
906 04-09-2019 03:25:00 11.3 C 92 % 10.05 C
907 04-09-2019 03:30:00 11.3 C 92 % 10.05 C
908 04-09-2019 03:35:00 11.3 C 92 % 10.05 C
909 04-09-2019 03:40:00 11.2 C 92 % 9.95 C
910 04-09-2019 03:45:00 11.2 C 92 % 9.95 C
911 04-09-2019 03:50:00 11.2 C 92 % 9.95 C
912 04-09-2019 03:55:00 11.1 C 92 % 9.85 C
913 04-09-2019 04:00:00 11 C 92 % 9.75 C
914 04-09-2019 04:05:00 10.9 C 92 % 9.65 C
915 04-09-2019 04:10:00 10.8 C 92 % 9.55 C
916 04-09-2019 04:15:00 10.8 C 92 % 9.55 C
917 04-09-2019 04:20:00 10.7 C 92 % 9.45 C
918 04-09-2019 04:25:00 10.7 C 93 % 9.62 C
919 04-09-2019 04:30:00 10.7 C 93 % 9.62 C
920 04-09-2019 04:35:00 10.6 C 93 % 9.52 C
921 04-09-2019 04:40:00 10.6 C 93 % 9.52 C
922 04-09-2019 04:45:00 10.7 C 93 % 9.62 C
923 04-09-2019 04:50:00 10.7 C 93 % 9.62 C
924 04-09-2019 04:55:00 10.7 C 93 % 9.62 C
925 04-09-2019 05:00:00 10.6 C 93 % 9.52 C
Sensor: Nr:Datum:Temp:Feuchte:Taupunkt:
Aussen-T/F 926 04-09-2019 05:05:00 10.6 C 93 % 9.52 C
927 04-09-2019 05:10:00 10.4 C 93 % 9.32 C
928 04-09-2019 05:15:00 10.4 C 93 % 9.32 C
929 04-09-2019 05:20:00 10.4 C 94 % 9.48 C
930 04-09-2019 05:25:00 10.4 C 93 % 9.32 C
931 04-09-2019 05:30:00 10.3 C 94 % 9.38 C
932 04-09-2019 05:35:00 10.3 C 94 % 9.38 C
933 04-09-2019 05:40:00 10.3 C 94 % 9.38 C
934 04-09-2019 05:45:00 10.3 C 94 % 9.38 C
935 04-09-2019 05:50:00 10.2 C 94 % 9.28 C
936 04-09-2019 05:55:00 10.2 C 94 % 9.28 C
937 04-09-2019 06:00:00 10.2 C 94 % 9.28 C
938 04-09-2019 06:05:00 10.1 C 94 % 9.18 C
939 04-09-2019 06:10:00 10.1 C 94 % 9.18 C
940 04-09-2019 06:15:00 10.1 C 94 % 9.18 C
941 04-09-2019 06:20:00 10 C 94 % 9.08 C
942 04-09-2019 06:25:00 10 C 94 % 9.08 C
943 04-09-2019 06:30:00 10.1 C 94 % 9.18 C
944 04-09-2019 06:35:00 10.2 C 94 % 9.28 C
945 04-09-2019 06:40:00 10.3 C 95 % 9.54 C
946 04-09-2019 06:45:00 10.3 C 95 % 9.54 C
947 04-09-2019 06:50:00 10.3 C 95 % 9.54 C
948 04-09-2019 06:55:00 10.2 C 94 % 9.28 C
949 04-09-2019 07:00:00 10.2 C 94 % 9.28 C
950 04-09-2019 07:05:00 10.1 C 94 % 9.18 C
Sensor: Nr:Datum:Temp:Feuchte:Taupunkt:
Aussen-T/F 951 04-09-2019 07:10:00 10.1 C 94 % 9.18 C
952 04-09-2019 07:15:00 10.1 C 95 % 9.34 C
953 04-09-2019 07:20:00 10.1 C 95 % 9.34 C
954 04-09-2019 07:25:00 10.1 C 95 % 9.34 C
955 04-09-2019 07:30:00 10 C 95 % 9.24 C
956 04-09-2019 07:35:00 10 C 95 % 9.24 C
957 04-09-2019 07:40:00 10.1 C 95 % 9.34 C
958 04-09-2019 07:45:00 10.1 C 95 % 9.34 C
959 04-09-2019 07:50:00 10.1 C 95 % 9.34 C
960 04-09-2019 07:55:00 10.1 C 95 % 9.34 C
961 04-09-2019 08:00:00 10.2 C 95 % 9.44 C
962 04-09-2019 08:05:00 10.2 C 95 % 9.44 C
963 04-09-2019 08:10:00 10.3 C 95 % 9.54 C
964 04-09-2019 08:15:00 10.3 C 95 % 9.54 C
965 04-09-2019 08:20:00 10.4 C 95 % 9.63 C
966 04-09-2019 08:25:00 10.5 C 95 % 9.73 C
967 04-09-2019 08:30:00 10.6 C 95 % 9.83 C
968 04-09-2019 08:35:00 10.7 C 95 % 9.93 C
969 04-09-2019 08:40:00 10.8 C 96 % 10.19 C
970 04-09-2019 08:45:00 11.1 C 96 % 10.49 C
971 04-09-2019 08:50:00 11.3 C 96 % 10.69 C
972 04-09-2019 08:55:00 11.7 C 96 % 11.08 C
973 04-09-2019 09:00:00 11.9 C 96 % 11.28 C
974 04-09-2019 09:05:00 12.2 C 96 % 11.58 C
975 04-09-2019 09:10:00 12.4 C 96 % 11.78 C
Sensor: Nr:Datum:Temp:Feuchte:Taupunkt:
Aussen-T/F 976 04-09-2019 09:15:00 12.7 C 95 % 11.92 C
977 04-09-2019 09:20:00 12.9 C 94 % 11.96 C
978 04-09-2019 09:25:00 13.1 C 92 % 11.83 C
979 04-09-2019 09:30:00 13.3 C 92 % 12.03 C
980 04-09-2019 09:35:00 13.4 C 91 % 11.96 C
981 04-09-2019 09:40:00 13.7 C 90 % 12.09 C
982 04-09-2019 09:45:00 13.8 C 89 % 12.02 C
983 04-09-2019 09:50:00 13.9 C 88 % 11.95 C
984 04-09-2019 09:55:00 14.1 C 88 % 12.14 C
985 04-09-2019 10:00:00 14.1 C 87 % 11.97 C
986 04-09-2019 10:05:00 14.2 C 87 % 12.07 C
987 04-09-2019 10:10:00 14.3 C 87 % 12.17 C
988 04-09-2019 10:15:00 14.4 C 87 % 12.27 C
989 04-09-2019 10:20:00 14.4 C 87 % 12.27 C
990 04-09-2019 10:25:00 14.4 C 87 % 12.27 C
991 04-09-2019 10:30:00 14.7 C 86 % 12.38 C
992 04-09-2019 10:35:00 14.9 C 86 % 12.58 C
993 04-09-2019 10:40:00 15.3 C 84 % 12.61 C
994 04-09-2019 10:45:00 15.7 C 83 % 12.82 C
995 04-09-2019 10:50:00 15.9 C 83 % 13.02 C
996 04-09-2019 10:55:00 16.2 C 81 % 12.94 C
997 04-09-2019 11:00:00 16.5 C 80 % 13.04 C
998 04-09-2019 11:05:00 16.8 C 79 % 13.14 C
999 04-09-2019 11:10:00 17.1 C 77 % 13.04 C
1000 04-09-2019 11:15:00 17.6 C 75 % 13.12 C
Sensor: Nr:Datum:Temp:Feuchte:Taupunkt:
Aussen-T/F 1001 04-09-2019 11:20:00 17.9 C 73 % 12.99 C
1002 04-09-2019 11:25:00 18.2 C 72 % 13.07 C
1003 04-09-2019 11:30:00 18.4 C 72 % 13.26 C
1004 04-09-2019 11:35:00 18.7 C 70 % 13.12 C
1005 04-09-2019 11:40:00 18.8 C 69 % 13 C
1006 04-09-2019 11:45:00 18.9 C 69 % 13.09 C
1007 04-09-2019 11:50:00 19.1 C 68 % 13.06 C
1008 04-09-2019 11:55:00 19.1 C 68 % 13.06 C
1009 04-09-2019 12:00:00 19.2 C 67 % 12.93 C
1010 04-09-2019 12:05:00 19.3 C 68 % 13.25 C
1011 04-09-2019 12:10:00 19.4 C 66 % 12.89 C
1012 04-09-2019 12:15:00 19.5 C 67 % 13.21 C
1013 04-09-2019 12:20:00 19.6 C 67 % 13.31 C
1014 04-09-2019 12:25:00 19.7 C 66 % 13.17 C
1015 04-09-2019 12:30:00 19.8 C 66 % 13.27 C
1016 04-09-2019 12:35:00 19.9 C 66 % 13.36 C
1017 04-09-2019 12:40:00 20.1 C 65 % 13.32 C
1018 04-09-2019 12:45:00 20.2 C 64 % 13.18 C
1019 04-09-2019 12:50:00 20.3 C 64 % 13.27 C
1020 04-09-2019 12:55:00 20.4 C 65 % 13.6 C
1021 04-09-2019 13:00:00 20.5 C 64 % 13.46 C
1022 04-09-2019 13:05:00 20.7 C 64 % 13.65 C
1023 04-09-2019 13:10:00 20.7 C 63 % 13.41 C
1024 04-09-2019 13:15:00 20.8 C 64 % 13.74 C
1025 04-09-2019 13:20:00 20.9 C 63 % 13.6 C
Sensor: Nr:Datum:Temp:Feuchte:Taupunkt:
Aussen-T/F 1026 04-09-2019 13:25:00 21.2 C 62 % 13.63 C
1027 04-09-2019 13:30:00 21.3 C 61 % 13.48 C
1028 04-09-2019 13:35:00 21.4 C 61 % 13.57 C
1029 04-09-2019 13:40:00 21.4 C 61 % 13.57 C
1030 04-09-2019 13:45:00 21.6 C 61 % 13.76 C
1031 04-09-2019 13:50:00 21.7 C 60 % 13.6 C
1032 04-09-2019 13:55:00 21.8 C 60 % 13.69 C
1033 04-09-2019 14:00:00 21.9 C 59 % 13.53 C
1034 04-09-2019 14:05:00 22.1 C 60 % 13.98 C
1035 04-09-2019 14:10:00 22.2 C 59 % 13.81 C
1036 04-09-2019 14:15:00 22.2 C 58 % 13.55 C
1037 04-09-2019 14:20:00 22.4 C 59 % 14 C
1038 04-09-2019 14:25:00 22.5 C 58 % 13.83 C
1039 04-09-2019 14:30:00 22.6 C 57 % 13.65 C
1040 04-09-2019 14:35:00 22.7 C 56 % 13.47 C
1041 04-09-2019 14:40:00 22.9 C 57 % 13.93 C
1042 04-09-2019 14:45:00 23.1 C 56 % 13.85 C
1043 04-09-2019 14:50:00 23.2 C 56 % 13.94 C
1044 04-09-2019 14:55:00 23.3 C 56 % 14.03 C
1045 04-09-2019 15:00:00 23.4 C 55 % 13.85 C
1046 04-09-2019 15:05:00 23.4 C 56 % 14.13 C
1047 04-09-2019 15:10:00 23.7 C 53 % 13.56 C
1048 04-09-2019 15:15:00 23.7 C 54 % 13.84 C
1049 04-09-2019 15:20:00 23.7 C 53 % 13.56 C
1050 04-09-2019 15:25:00 23.7 C 54 % 13.84 C
Sensor: Nr:Datum:Temp:Feuchte:Taupunkt:
Aussen-T/F 1051 04-09-2019 15:30:00 23.9 C 53 % 13.74 C
1052 04-09-2019 15:35:00 24 C 53 % 13.83 C
1053 04-09-2019 15:40:00 24.1 C 52 % 13.63 C
1054 04-09-2019 15:45:00 24.1 C 53 % 13.93 C
1055 04-09-2019 15:50:00 24.1 C 53 % 13.93 C
1056 04-09-2019 15:55:00 24.4 C 53 % 14.2 C
1057 04-09-2019 16:00:00 24.5 C 51 % 13.7 C
1058 04-09-2019 16:05:00 24.4 C 53 % 14.2 C
1059 04-09-2019 16:10:00 24.6 C 53 % 14.39 C
1060 04-09-2019 16:15:00 24.7 C 53 % 14.48 C
1061 04-09-2019 16:20:00 24.8 C 52 % 14.28 C
1062 04-09-2019 16:25:00 24.9 C 51 % 14.07 C
1063 04-09-2019 16:30:00 25.1 C 51 % 14.25 C
1064 04-09-2019 16:35:00 25.4 C 50 % 14.22 C
1065 04-09-2019 16:40:00 25.7 C 48 % 13.87 C
1066 04-09-2019 16:45:00 25.7 C 49 % 14.19 C
1067 04-09-2019 16:50:00 25.7 C 49 % 14.19 C
1068 04-09-2019 16:55:00 25.9 C 48 % 14.05 C
1069 04-09-2019 17:00:00 26.2 C 48 % 14.32 C
1070 04-09-2019 17:05:00 26.5 C 48 % 14.6 C
1071 04-09-2019 17:10:00 26.8 C 47 % 14.55 C
1072 04-09-2019 17:15:00 26.8 C 46 % 14.21 C
1073 04-09-2019 17:20:00 27 C 44 % 13.71 C
1074 04-09-2019 17:25:00 27.1 C 45 % 14.15 C
1075 04-09-2019 17:30:00 27.3 C 44 % 13.98 C
Sensor: Nr:Datum:Temp:Feuchte:Taupunkt:
Aussen-T/F 1076 04-09-2019 17:35:00 27.1 C 44 % 13.8 C
1077 04-09-2019 17:40:00 27.1 C 42 % 13.09 C
1078 04-09-2019 17:45:00 26.9 C 43 % 13.27 C
1079 04-09-2019 17:50:00 26.9 C 43 % 13.27 C
1080 04-09-2019 17:55:00 26.8 C 44 % 13.53 C
1081 04-09-2019 18:00:00 26.6 C 44 % 13.35 C
1082 04-09-2019 18:05:00 26.2 C 43 % 12.64 C
1083 04-09-2019 18:10:00 25.8 C 44 % 12.63 C
1084 04-09-2019 18:15:00 25.4 C 46 % 12.94 C
1085 04-09-2019 18:20:00 25.1 C 48 % 13.32 C
1086 04-09-2019 18:25:00 24.9 C 47 % 12.82 C
1087 04-09-2019 18:30:00 24.8 C 47 % 12.73 C
1088 04-09-2019 18:35:00 24.6 C 48 % 12.87 C
1089 04-09-2019 18:40:00 24.4 C 49 % 13 C
1090 04-09-2019 18:45:00 24.3 C 49 % 12.91 C
1091 04-09-2019 18:50:00 24.2 C 50 % 13.12 C
1092 04-09-2019 18:55:00 24.2 C 49 % 12.81 C
1093 04-09-2019 19:00:00 24.2 C 50 % 13.12 C
1094 04-09-2019 19:05:00 24.1 C 50 % 13.03 C
1095 04-09-2019 19:10:00 24 C 51 % 13.24 C
1096 04-09-2019 19:15:00 23.9 C 51 % 13.15 C
1097 04-09-2019 19:20:00 23.8 C 51 % 13.06 C
1098 04-09-2019 19:25:00 23.7 C 52 % 13.26 C
1099 04-09-2019 19:30:00 23.6 C 51 % 12.88 C
1100 04-09-2019 19:35:00 23.6 C 52 % 13.17 C
Sensor: Nr:Datum:Temp:Feuchte:Taupunkt:
Aussen-T/F 1101 04-09-2019 19:40:00 23.4 C 53 % 13.28 C
1102 04-09-2019 19:45:00 23.3 C 54 % 13.47 C
1103 04-09-2019 19:50:00 23.1 C 54 % 13.29 C
1104 04-09-2019 19:55:00 22.3 C 58 % 13.64 C
1105 04-09-2019 20:00:00 21.4 C 61 % 13.57 C
1106 04-09-2019 20:05:00 20.8 C 63 % 13.5 C
1107 04-09-2019 20:10:00 20.4 C 65 % 13.6 C
1108 04-09-2019 20:15:00 20 C 67 % 13.69 C
1109 04-09-2019 20:20:00 19.7 C 69 % 13.86 C
1110 04-09-2019 20:25:00 19.6 C 70 % 13.98 C
1111 04-09-2019 20:30:00 19.5 C 70 % 13.89 C
1112 04-09-2019 20:35:00 19.4 C 71 % 14.01 C
1113 04-09-2019 20:40:00 19.3 C 71 % 13.91 C
1114 04-09-2019 20:45:00 19.3 C 73 % 14.34 C
1115 04-09-2019 20:50:00 19.3 C 76 % 14.97 C
1116 04-09-2019 20:55:00 19.1 C 77 % 14.97 C
1117 04-09-2019 21:00:00 18.8 C 79 % 15.08 C
1118 04-09-2019 21:05:00 18.6 C 81 % 15.28 C
1119 04-09-2019 21:10:00 18.3 C 82 % 15.17 C
1120 04-09-2019 21:15:00 18.1 C 84 % 15.35 C
1121 04-09-2019 21:20:00 17.9 C 85 % 15.34 C
1122 04-09-2019 21:25:00 17.6 C 85 % 15.05 C
1123 04-09-2019 21:30:00 17.4 C 86 % 15.03 C
1124 04-09-2019 21:35:00 17.3 C 87 % 15.12 C
1125 04-09-2019 21:40:00 17.1 C 87 % 14.92 C
Sensor: Nr:Datum:Temp:Feuchte:Taupunkt:
Aussen-T/F 1126 04-09-2019 21:45:00 16.9 C 88 % 14.9 C
1127 04-09-2019 21:50:00 16.8 C 88 % 14.8 C
1128 04-09-2019 21:55:00 16.7 C 88 % 14.7 C
1129 04-09-2019 22:00:00 16.7 C 89 % 14.88 C
1130 04-09-2019 22:05:00 16.6 C 89 % 14.78 C
1131 04-09-2019 22:10:00 16.6 C 90 % 14.95 C
1132 04-09-2019 22:15:00 16.4 C 90 % 14.76 C
1133 04-09-2019 22:20:00 16.4 C 90 % 14.76 C
1134 04-09-2019 22:25:00 16.3 C 90 % 14.66 C
1135 04-09-2019 22:30:00 16.2 C 91 % 14.73 C
1136 04-09-2019 22:35:00 16.2 C 91 % 14.73 C
1137 04-09-2019 22:40:00 16.2 C 91 % 14.73 C
1138 04-09-2019 22:45:00 16.1 C 91 % 14.63 C
1139 04-09-2019 22:50:00 15.9 C 91 % 14.43 C
1140 04-09-2019 22:55:00 15.8 C 91 % 14.33 C
1141 04-09-2019 23:00:00 15.8 C 90 % 14.16 C
1142 04-09-2019 23:05:00 15.7 C 91 % 14.24 C
1143 04-09-2019 23:10:00 15.7 C 91 % 14.24 C
1144 04-09-2019 23:15:00 15.7 C 91 % 14.24 C
1145 04-09-2019 23:20:00 15.6 C 91 % 14.14 C
1146 04-09-2019 23:25:00 15.6 C 91 % 14.14 C
1147 04-09-2019 23:30:00 15.6 C 91 % 14.14 C
1148 04-09-2019 23:35:00 15.6 C 91 % 14.14 C
1149 04-09-2019 23:40:00 15.6 C 91 % 14.14 C
1150 04-09-2019 23:45:00 15.6 C 91 % 14.14 C
Sensor: Nr:Datum:Temp:Feuchte:Taupunkt:
Aussen-T/F 1151 04-09-2019 23:50:00 15.6 C 91 % 14.14 C
1152 04-09-2019 23:55:00 15.6 C 91 % 14.14 C
1153 05-09-2019 00:00:00 15.6 C 91 % 14.14 C
1154 05-09-2019 00:05:00 15.6 C 91 % 14.14 C
1155 05-09-2019 00:10:00 15.6 C 91 % 14.14 C
1156 05-09-2019 00:15:00 15.6 C 91 % 14.14 C
1157 05-09-2019 00:20:00 15.6 C 91 % 14.14 C
1158 05-09-2019 00:25:00 15.6 C 91 % 14.14 C
1159 05-09-2019 00:30:00 15.6 C 91 % 14.14 C
1160 05-09-2019 00:35:00 15.6 C 91 % 14.14 C
1161 05-09-2019 00:40:00 15.6 C 91 % 14.14 C
1162 05-09-2019 00:45:00 15.6 C 91 % 14.14 C
1163 05-09-2019 00:50:00 15.6 C 91 % 14.14 C
1164 05-09-2019 00:55:00 15.6 C 91 % 14.14 C
1165 05-09-2019 01:00:00 15.6 C 91 % 14.14 C
1166 05-09-2019 01:05:00 15.6 C 91 % 14.14 C
1167 05-09-2019 01:10:00 15.6 C 91 % 14.14 C
1168 05-09-2019 01:15:00 15.6 C 91 % 14.14 C
1169 05-09-2019 01:20:00 15.5 C 91 % 14.04 C
1170 05-09-2019 01:25:00 15.5 C 91 % 14.04 C
1171 05-09-2019 01:30:00 15.4 C 90 % 13.77 C
1172 05-09-2019 01:35:00 15.3 C 89 % 13.5 C
1173 05-09-2019 01:40:00 15.3 C 86 % 12.97 C
1174 05-09-2019 01:45:00 15.3 C 87 % 13.15 C
1175 05-09-2019 01:50:00 15.2 C 86 % 12.88 C
Sensor: Nr:Datum:Temp:Feuchte:Taupunkt:
Aussen-T/F 1176 05-09-2019 01:55:00 15.1 C 86 % 12.78 C
1177 05-09-2019 02:00:00 15 C 86 % 12.68 C
1178 05-09-2019 02:05:00 14.8 C 86 % 12.48 C
1179 05-09-2019 02:10:00 14.7 C 86 % 12.38 C
1180 05-09-2019 02:15:00 14.5 C 87 % 12.36 C
1181 05-09-2019 02:20:00 14.4 C 87 % 12.27 C
1182 05-09-2019 02:25:00 14.3 C 87 % 12.17 C
1183 05-09-2019 02:30:00 14.2 C 87 % 12.07 C
1184 05-09-2019 02:35:00 14.1 C 87 % 11.97 C
1185 05-09-2019 02:40:00 14 C 87 % 11.87 C
1186 05-09-2019 02:45:00 13.9 C 87 % 11.77 C
1187 05-09-2019 02:50:00 13.8 C 87 % 11.68 C
1188 05-09-2019 02:55:00 13.8 C 88 % 11.85 C
1189 05-09-2019 03:00:00 13.9 C 87 % 11.77 C
1190 05-09-2019 03:05:00 14 C 87 % 11.87 C
1191 05-09-2019 03:10:00 14 C 87 % 11.87 C
1192 05-09-2019 03:15:00 14.1 C 87 % 11.97 C
1193 05-09-2019 03:20:00 14.1 C 86 % 11.8 C
1194 05-09-2019 03:25:00 14 C 86 % 11.7 C
1195 05-09-2019 03:30:00 13.9 C 86 % 11.6 C
1196 05-09-2019 03:35:00 13.9 C 87 % 11.77 C
1197 05-09-2019 03:40:00 13.9 C 87 % 11.77 C
1198 05-09-2019 03:45:00 13.9 C 87 % 11.77 C
1199 05-09-2019 03:50:00 14 C 87 % 11.87 C
1200 05-09-2019 03:55:00 14 C 86 % 11.7 C
Sensor: Nr:Datum:Temp:Feuchte:Taupunkt:
Aussen-T/F 1201 05-09-2019 04:00:00 14.1 C 86 % 11.8 C
1202 05-09-2019 04:05:00 14.1 C 86 % 11.8 C
1203 05-09-2019 04:10:00 14.1 C 86 % 11.8 C
1204 05-09-2019 04:15:00 14.1 C 85 % 11.62 C
1205 05-09-2019 04:20:00 14.1 C 85 % 11.62 C
1206 05-09-2019 04:25:00 14.1 C 85 % 11.62 C
1207 05-09-2019 04:30:00 14.1 C 85 % 11.62 C
1208 05-09-2019 04:35:00 14.1 C 85 % 11.62 C
1209 05-09-2019 04:40:00 14.1 C 85 % 11.62 C
1210 05-09-2019 04:45:00 14.1 C 84 % 11.44 C
1211 05-09-2019 04:50:00 14 C 84 % 11.34 C
1212 05-09-2019 04:55:00 13.9 C 84 % 11.24 C
1213 05-09-2019 05:00:00 13.9 C 84 % 11.24 C
1214 05-09-2019 05:05:00 13.8 C 84 % 11.15 C
1215 05-09-2019 05:10:00 13.8 C 84 % 11.15 C
1216 05-09-2019 05:15:00 13.8 C 84 % 11.15 C
1217 05-09-2019 05:20:00 13.7 C 84 % 11.05 C
1218 05-09-2019 05:25:00 13.6 C 84 % 10.95 C
1219 05-09-2019 05:30:00 13.5 C 84 % 10.85 C
1220 05-09-2019 05:35:00 13.3 C 84 % 10.66 C
1221 05-09-2019 05:40:00 13.3 C 84 % 10.66 C
1222 05-09-2019 05:45:00 13.2 C 84 % 10.56 C
1223 05-09-2019 05:50:00 13 C 85 % 10.54 C
1224 05-09-2019 05:55:00 12.9 C 85 % 10.44 C
1225 05-09-2019 06:00:00 12.8 C 86 % 10.52 C
Sensor: Nr:Datum:Temp:Feuchte:Taupunkt:
Aussen-T/F 1226 05-09-2019 06:05:00 12.8 C 86 % 10.52 C
1227 05-09-2019 06:10:00 12.7 C 86 % 10.42 C
1228 05-09-2019 06:15:00 12.6 C 86 % 10.32 C
1229 05-09-2019 06:20:00 12.6 C 86 % 10.32 C
1230 05-09-2019 06:25:00 12.6 C 86 % 10.32 C
1231 05-09-2019 06:30:00 12.5 C 86 % 10.22 C
1232 05-09-2019 06:35:00 12.5 C 86 % 10.22 C
1233 05-09-2019 06:40:00 12.5 C 86 % 10.22 C
1234 05-09-2019 06:45:00 12.4 C 86 % 10.13 C
1235 05-09-2019 06:50:00 12.4 C 86 % 10.13 C
1236 05-09-2019 06:55:00 12.4 C 86 % 10.13 C
1237 05-09-2019 07:00:00 12.3 C 86 % 10.03 C
1238 05-09-2019 07:05:00 12.2 C 87 % 10.1 C
1239 05-09-2019 07:10:00 12.2 C 87 % 10.1 C
1240 05-09-2019 07:15:00 12.2 C 87 % 10.1 C
1241 05-09-2019 07:20:00 12.2 C 87 % 10.1 C
1242 05-09-2019 07:25:00 12.2 C 87 % 10.1 C
1243 05-09-2019 07:30:00 12.2 C 87 % 10.1 C
1244 05-09-2019 07:35:00 12.2 C 87 % 10.1 C
1245 05-09-2019 07:40:00 12.2 C 87 % 10.1 C
1246 05-09-2019 07:45:00 12.2 C 87 % 10.1 C
1247 05-09-2019 07:50:00 12.2 C 87 % 10.1 C
1248 05-09-2019 07:55:00 12.2 C 87 % 10.1 C
1249 05-09-2019 08:00:00 12.2 C 87 % 10.1 C
1250 05-09-2019 08:05:00 12.3 C 87 % 10.2 C
Sensor: Nr:Datum:Temp:Feuchte:Taupunkt:
Aussen-T/F 1251 05-09-2019 08:10:00 12.4 C 86 % 10.13 C
1252 05-09-2019 08:15:00 12.4 C 86 % 10.13 C
1253 05-09-2019 08:20:00 12.5 C 86 % 10.22 C
1254 05-09-2019 08:25:00 12.5 C 86 % 10.22 C
1255 05-09-2019 08:30:00 12.6 C 85 % 10.15 C
1256 05-09-2019 08:35:00 12.6 C 85 % 10.15 C
1257 05-09-2019 08:40:00 12.7 C 85 % 10.25 C
1258 05-09-2019 08:45:00 12.8 C 84 % 10.17 C
1259 05-09-2019 08:50:00 12.9 C 84 % 10.26 C
1260 05-09-2019 08:55:00 13.1 C 84 % 10.46 C
1261 05-09-2019 09:00:00 13.1 C 84 % 10.46 C
1262 05-09-2019 09:05:00 13.1 C 83 % 10.28 C
1263 05-09-2019 09:10:00 13.2 C 83 % 10.38 C
1264 05-09-2019 09:15:00 13.2 C 83 % 10.38 C
1265 05-09-2019 09:20:00 13.2 C 83 % 10.38 C
1266 05-09-2019 09:25:00 13.4 C 83 % 10.57 C
1267 05-09-2019 09:30:00 13.6 C 82 % 10.59 C
1268 05-09-2019 09:35:00 13.8 C 82 % 10.78 C
1269 05-09-2019 09:40:00 13.9 C 81 % 10.7 C
1270 05-09-2019 09:45:00 14 C 81 % 10.79 C
1271 05-09-2019 09:50:00 14.2 C 81 % 10.99 C
1272 05-09-2019 09:55:00 14.4 C 81 % 11.18 C
1273 05-09-2019 10:00:00 14.7 C 79 % 11.1 C
1274 05-09-2019 10:05:00 14.8 C 79 % 11.2 C
1275 05-09-2019 10:10:00 14.9 C 79 % 11.29 C
Sensor: Nr:Datum:Temp:Feuchte:Taupunkt:
Aussen-T/F 1276 05-09-2019 10:15:00 15 C 79 % 11.39 C
1277 05-09-2019 10:20:00 15.2 C 78 % 11.39 C
1278 05-09-2019 10:25:00 15.4 C 78 % 11.59 C
1279 05-09-2019 10:30:00 15.6 C 77 % 11.59 C
1280 05-09-2019 10:35:00 15.7 C 77 % 11.68 C
1281 05-09-2019 10:40:00 15.8 C 76 % 11.58 C
1282 05-09-2019 10:45:00 16 C 75 % 11.57 C
1283 05-09-2019 10:50:00 16.2 C 76 % 11.97 C
1284 05-09-2019 10:55:00 16.4 C 75 % 11.96 C
1285 05-09-2019 11:00:00 16.6 C 74 % 11.95 C
1286 05-09-2019 11:05:00 16.7 C 70 % 11.21 C
1287 05-09-2019 11:10:00 16.8 C 71 % 11.52 C
1288 05-09-2019 11:15:00 16.9 C 70 % 11.4 C
1289 05-09-2019 11:20:00 17.1 C 67 % 10.93 C
1290 05-09-2019 11:25:00 17.3 C 68 % 11.34 C
1291 05-09-2019 11:30:00 17.3 C 68 % 11.34 C
1292 05-09-2019 11:35:00 16.9 C 69 % 11.18 C
1293 05-09-2019 11:40:00 16.7 C 71 % 11.42 C
1294 05-09-2019 11:45:00 16.4 C 72 % 11.34 C
1295 05-09-2019 11:50:00 16.3 C 72 % 11.25 C
1296 05-09-2019 11:55:00 16.3 C 73 % 11.46 C
1297 05-09-2019 12:00:00 16.3 C 72 % 11.25 C
1298 05-09-2019 12:05:00 16.4 C 71 % 11.13 C
1299 05-09-2019 12:10:00 16.6 C 70 % 11.11 C
1300 05-09-2019 12:15:00 16.6 C 70 % 11.11 C
Sensor: Nr:Datum:Temp:Feuchte:Taupunkt:
Aussen-T/F 1301 05-09-2019 12:20:00 16.8 C 70 % 11.3 C
1302 05-09-2019 12:25:00 17.1 C 68 % 11.15 C
1303 05-09-2019 12:30:00 17.3 C 67 % 11.12 C
1304 05-09-2019 12:35:00 17.6 C 66 % 11.18 C
1305 05-09-2019 12:40:00 17.5 C 66 % 11.08 C
1306 05-09-2019 12:45:00 17.6 C 63 % 10.48 C
1307 05-09-2019 12:50:00 17.6 C 63 % 10.48 C
1308 05-09-2019 12:55:00 17.7 C 62 % 10.33 C
1309 05-09-2019 13:00:00 17.9 C 63 % 10.76 C
1310 05-09-2019 13:05:00 18.2 C 60 % 10.31 C
1311 05-09-2019 13:10:00 18.3 C 60 % 10.41 C
1312 05-09-2019 13:15:00 18.2 C 59 % 10.06 C
1313 05-09-2019 13:20:00 18.1 C 60 % 10.22 C
1314 05-09-2019 13:25:00 18 C 61 % 10.37 C
1315 05-09-2019 13:30:00 17.9 C 61 % 10.28 C
1316 05-09-2019 13:35:00 17.8 C 62 % 10.43 C
1317 05-09-2019 13:40:00 17.9 C 63 % 10.76 C
1318 05-09-2019 13:45:00 18.2 C 61 % 10.56 C
1319 05-09-2019 13:50:00 18.3 C 61 % 10.66 C
1320 05-09-2019 13:55:00 18.4 C 60 % 10.5 C
1321 05-09-2019 14:00:00 18.5 C 60 % 10.6 C
1322 05-09-2019 14:05:00 18.4 C 60 % 10.5 C
1323 05-09-2019 14:10:00 18.4 C 60 % 10.5 C
1324 05-09-2019 14:15:00 18.3 C 62 % 10.9 C
1325 05-09-2019 14:20:00 18.2 C 63 % 11.05 C
Sensor: Nr:Datum:Temp:Feuchte:Taupunkt:
Aussen-T/F 1326 05-09-2019 14:25:00 18.1 C 65 % 11.42 C
1327 05-09-2019 14:30:00 17.9 C 65 % 11.23 C
1328 05-09-2019 14:35:00 17.9 C 64 % 11 C
1329 05-09-2019 14:40:00 17.8 C 64 % 10.9 C
1330 05-09-2019 14:45:00 17.8 C 63 % 10.67 C
1331 05-09-2019 14:50:00 17.8 C 64 % 10.9 C
1332 05-09-2019 14:55:00 18 C 65 % 11.33 C
1333 05-09-2019 15:00:00 18.2 C 62 % 10.81 C
1334 05-09-2019 15:05:00 18.2 C 62 % 10.81 C
1335 05-09-2019 15:10:00 18.4 C 62 % 10.99 C
1336 05-09-2019 15:15:00 18.5 C 60 % 10.6 C
1337 05-09-2019 15:20:00 18.6 C 59 % 10.44 C
1338 05-09-2019 15:25:00 18.6 C 56 % 9.66 C
1339 05-09-2019 15:30:00 18.7 C 57 % 10.02 C
1340 05-09-2019 15:35:00 18.6 C 55 % 9.39 C
1341 05-09-2019 15:40:00 18.6 C 56 % 9.66 C
1342 05-09-2019 15:45:00 18.6 C 54 % 9.12 C
1343 05-09-2019 15:50:00 18.5 C 54 % 9.03 C
1344 05-09-2019 15:55:00 18.5 C 54 % 9.03 C
1345 05-09-2019 16:00:00 18.5 C 54 % 9.03 C
1346 05-09-2019 16:05:00 18.4 C 54 % 8.93 C
1347 05-09-2019 16:10:00 18.5 C 55 % 9.3 C
1348 05-09-2019 16:15:00 18.7 C 54 % 9.21 C
1349 05-09-2019 16:20:00 18.9 C 54 % 9.4 C
1350 05-09-2019 16:25:00 19.3 C 53 % 9.49 C
Sensor: Nr:Datum:Temp:Feuchte:Taupunkt:
Aussen-T/F 1351 05-09-2019 16:30:00 19.7 C 54 % 10.14 C
1352 05-09-2019 16:35:00 19.7 C 52 % 9.58 C
1353 05-09-2019 16:40:00 19.6 C 55 % 10.32 C
1354 05-09-2019 16:45:00 19 C 59 % 10.81 C
1355 05-09-2019 16:50:00 18.6 C 63 % 11.42 C
1356 05-09-2019 16:55:00 18.1 C 64 % 11.19 C
1357 05-09-2019 17:00:00 17.8 C 63 % 10.67 C
1358 05-09-2019 17:05:00 17.8 C 63 % 10.67 C
1359 05-09-2019 17:10:00 17.8 C 63 % 10.67 C
1360 05-09-2019 17:15:00 17.7 C 63 % 10.57 C
1361 05-09-2019 17:20:00 17.4 C 62 % 10.05 C
1362 05-09-2019 17:25:00 17.3 C 63 % 10.2 C
1363 05-09-2019 17:30:00 17.1 C 64 % 10.24 C
1364 05-09-2019 17:35:00 17 C 65 % 10.38 C
1365 05-09-2019 17:40:00 16.8 C 64 % 9.96 C
1366 05-09-2019 17:45:00 16.7 C 65 % 10.09 C
1367 05-09-2019 17:50:00 16.7 C 65 % 10.09 C
1368 05-09-2019 17:55:00 16.6 C 66 % 10.23 C
1369 05-09-2019 18:00:00 16.4 C 67 % 10.26 C
1370 05-09-2019 18:05:00 16.4 C 67 % 10.26 C
1371 05-09-2019 18:10:00 16.3 C 67 % 10.17 C
1372 05-09-2019 18:15:00 16.3 C 68 % 10.39 C
1373 05-09-2019 18:20:00 16.3 C 69 % 10.61 C
1374 05-09-2019 18:25:00 16.3 C 69 % 10.61 C
1375 05-09-2019 18:30:00 16.3 C 69 % 10.61 C
Sensor: Nr:Datum:Temp:Feuchte:Taupunkt:
Aussen-T/F 1376 05-09-2019 18:35:00 16.3 C 69 % 10.61 C
1377 05-09-2019 18:40:00 16.4 C 69 % 10.7 C
1378 05-09-2019 18:45:00 16.4 C 67 % 10.26 C
1379 05-09-2019 18:50:00 16.5 C 66 % 10.13 C
1380 05-09-2019 18:55:00 16.9 C 65 % 10.28 C
1381 05-09-2019 19:00:00 17.3 C 63 % 10.2 C
1382 05-09-2019 19:05:00 17.4 C 61 % 9.81 C
1383 05-09-2019 19:10:00 17.2 C 61 % 9.62 C
1384 05-09-2019 19:15:00 16.9 C 62 % 9.58 C
1385 05-09-2019 19:20:00 16.6 C 63 % 9.53 C
1386 05-09-2019 19:25:00 16.3 C 63 % 9.25 C
1387 05-09-2019 19:30:00 16.2 C 65 % 9.62 C
1388 05-09-2019 19:35:00 16.1 C 65 % 9.53 C
1389 05-09-2019 19:40:00 16 C 66 % 9.66 C
1390 05-09-2019 19:45:00 15.9 C 67 % 9.79 C
1391 05-09-2019 19:50:00 15.9 C 68 % 10.01 C
1392 05-09-2019 19:55:00 15.8 C 68 % 9.91 C
1393 05-09-2019 20:00:00 15.8 C 68 % 9.91 C
1394 05-09-2019 20:05:00 15.8 C 69 % 10.13 C
1395 05-09-2019 20:10:00 15.7 C 69 % 10.03 C
1396 05-09-2019 20:15:00 15.7 C 70 % 10.25 C
1397 05-09-2019 20:20:00 15.8 C 70 % 10.34 C
1398 05-09-2019 20:25:00 15.8 C 70 % 10.34 C
1399 05-09-2019 20:30:00 15.8 C 69 % 10.13 C
1400 05-09-2019 20:35:00 15.7 C 69 % 10.03 C
Sensor: Nr:Datum:Temp:Feuchte:Taupunkt:
Aussen-T/F 1401 05-09-2019 20:40:00 15.7 C 69 % 10.03 C
1402 05-09-2019 20:45:00 15.7 C 69 % 10.03 C
1403 05-09-2019 20:50:00 15.6 C 68 % 9.72 C
1404 05-09-2019 20:55:00 15.4 C 69 % 9.75 C
1405 05-09-2019 21:00:00 15.4 C 69 % 9.75 C
1406 05-09-2019 21:05:00 15.3 C 70 % 9.87 C
1407 05-09-2019 21:10:00 15.2 C 70 % 9.77 C
1408 05-09-2019 21:15:00 15.1 C 70 % 9.67 C
1409 05-09-2019 21:20:00 15 C 71 % 9.79 C
1410 05-09-2019 21:25:00 14.9 C 70 % 9.48 C
1411 05-09-2019 21:30:00 14.8 C 70 % 9.39 C
1412 05-09-2019 21:35:00 14.8 C 70 % 9.39 C
1413 05-09-2019 21:40:00 14.8 C 70 % 9.39 C
1414 05-09-2019 21:45:00 14.7 C 71 % 9.5 C
1415 05-09-2019 21:50:00 14.6 C 71 % 9.41 C
1416 05-09-2019 21:55:00 14.6 C 71 % 9.41 C
1417 05-09-2019 22:00:00 14.6 C 71 % 9.41 C
1418 05-09-2019 22:05:00 14.6 C 71 % 9.41 C
1419 05-09-2019 22:10:00 14.6 C 72 % 9.61 C
1420 05-09-2019 22:15:00 14.6 C 72 % 9.61 C
1421 05-09-2019 22:20:00 14.6 C 72 % 9.61 C
1422 05-09-2019 22:25:00 14.5 C 73 % 9.72 C
1423 05-09-2019 22:30:00 14.4 C 73 % 9.63 C
1424 05-09-2019 22:35:00 14.4 C 74 % 9.83 C
1425 05-09-2019 22:40:00 14.4 C 73 % 9.63 C
Sensor: Nr:Datum:Temp:Feuchte:Taupunkt:
Aussen-T/F 1426 05-09-2019 22:45:00 14.4 C 73 % 9.63 C
1427 05-09-2019 22:50:00 14.4 C 73 % 9.63 C
1428 05-09-2019 22:55:00 14.4 C 73 % 9.63 C
1429 05-09-2019 23:00:00 14.3 C 73 % 9.53 C
1430 05-09-2019 23:05:00 14.3 C 73 % 9.53 C
1431 05-09-2019 23:10:00 14.3 C 73 % 9.53 C
1432 05-09-2019 23:15:00 14.3 C 73 % 9.53 C
1433 05-09-2019 23:20:00 14.2 C 73 % 9.43 C
1434 05-09-2019 23:25:00 14.1 C 73 % 9.34 C
1435 05-09-2019 23:30:00 14 C 74 % 9.44 C
1436 05-09-2019 23:35:00 13.9 C 74 % 9.35 C
1437 05-09-2019 23:40:00 13.8 C 75 % 9.45 C
1438 05-09-2019 23:45:00 13.6 C 75 % 9.26 C
1439 05-09-2019 23:50:00 13.3 C 76 % 9.16 C
1440 05-09-2019 23:55:00 13.2 C 76 % 9.07 C

Legende:
   Min
   Max


Maximal/Minimal-Werte vom 01.09.2019 - 05.09.2019

Sensor Min Max Avg
Temp
(Aussen-T/F)
8.5 °C
03-09-2019  07:00:00
27.3 °C
04-09-2019  17:30:00
16.42 °C
Feuchte
(Aussen-T/F)
36 %
02-09-2019  17:50:00
96 %
04-09-2019  08:40:00
73.27 %
Taupunkt
(Aussen-T/F)
6.63 C
03-09-2019  07:00:00
18.39 C
01-09-2019  00:00:00
11.2 C

Die Daten stammen von einer Davis Vantage Pro 2 Wetter-Station und werden unter Linux mit der Software wview2wettercgi und aufbereitet. Alle Angaben erfolgen ohne Gewähr für ihre Vollständigkeit oder Richtigkeit.
Kontakt: Rainer Krienke krienke@uni-koblenz.de . Meine Webseiten an der Uni Koblenz oder privat.
Version: $Revision: 0.78 $